DW7984 Weather Reports


Display with metric or nautical units.
time (UTC)temp
F
wind
direction
speed
MPH
gust
MPH
rain 1hr
in
rain 24hr
in
rain mn
in
humidity
%
barometer
mb
20260906064655 72 272 5.0 8.0 0.00 0.00 0.00 54 1056.2
20260906064555 72 270 5.0 8.0 0.00 0.00 0.00 53 1056.2
20260906064537 72 271 5.0 8.0 0.00 0.00 0.00 54 1056.2
20260906064527 72 280 5.0 8.0 0.00 0.00 0.00 54 1056.2
20260906064517 72 282 5.0 8.0 0.00 0.00 0.00 54 1056.2
20260906064155 72 276 5.0 8.0 0.00 0.00 0.00 54 1056.2
20260906064104 72 265 5.0 8.0 0.00 0.00 0.00 54 1056.2
20260906064055 71 279 4.0 8.0 0.00 0.00 0.00 54 1056.2
20260906064043 71 277 4.0 8.0 0.00 0.00 0.00 54 1056.2
20260906064032 71 274 4.0 8.0 0.00 0.00 0.00 55 1056.2
20260906063804 71 276 5.0 8.0 0.00 0.00 0.00 56 1056.2
20260906063749 71 275 5.0 8.0 0.00 0.00 0.00 56 1056.2
20260906063738 71 273 5.0 8.0 0.00 0.00 0.00 56 1056.2
20260906063511 71 275 5.0 8.0 0.00 0.00 0.00 55 1056.2
20260906063155 71 273 5.0 8.0 0.00 0.00 0.00 55 1056.2
20260906063055 71 276 5.0 8.0 0.00 0.00 0.00 55 1056.2
20260906063039 71 278 5.0 8.0 0.00 0.00 0.00 56 1056.2
20260906063027 71 285 5.0 8.0 0.00 0.00 0.00 55 1056.2
20260906062755 71 276 5.0 8.0 0.00 0.00 0.00 56 1056.2
20260906062651 71 278 5.0 8.0 0.00 0.00 0.00 55 1056.2
20260906062551 71 278 5.0 8.0 0.00 0.00 0.00 55 1056.1
20260906062451 71 281 5.0 8.0 0.00 0.00 0.00 55 1056.2
20260906062418 70 282 5.0 8.0 0.00 0.00 0.00 56 1056.1
20260906062408 70 293 6.0 8.0 0.00 0.00 0.00 56 1056.1
20260906062402 70 274 6.0 8.0 0.00 0.00 0.00 56 1056.1
20260906062346 70 270 5.0 8.0 0.00 0.00 0.00 55 1056.1
20260906062115 70 280 6.0 8.0 0.00 0.00 0.00 55 1056.1
20260906061803 70 279 5.0 8.0 0.00 0.00 0.00 56 1056.1
20260906061752 70 279 5.0 8.0 0.00 0.00 0.00 56 1056.1
20260906061651 70 282 5.0 8.0 0.00 0.00 0.00 56 1056.1
20260906061551 70 264 5.0 8.0 0.00 0.00 0.00 56 1056.1
20260906061453 69 272 5.0 8.0 0.00 0.00 0.00 57 1056.1
20260906061441 69 278 5.0 8.0 0.00 0.00 0.00 57 1056.1
20260906061430 69 277 5.0 8.0 0.00 0.00 0.00 57 1056.1
20260906061425 69 279 5.0 8.0 0.00 0.00 0.00 57 1056.1
20260906061415 69 278 6.0 8.0 0.00 0.00 0.00 57 1056.1
20260906061404 69 276 6.0 8.0 0.00 0.00 0.00 57 1056.1
20260906061351 69 274 5.0 8.0 0.00 0.00 0.00 57 1056.1
20260906060908 69 283 6.0 8.0 0.00 0.00 0.00 57 1056.1
20260906060545 69 277 5.0 8.0 0.00 0.00 0.00 58 1056.0
20260906060445 69 276 5.0 8.0 0.00 0.00 0.00 58 1056.1
20260906060418 68 274 5.0 7.0 0.00 0.00 0.00 58 1056.0
20260906060408 68 279 4.0 7.0 0.00 0.00 0.00 58 1056.0
20260906060401 68 284 4.0 7.0 0.00 0.00 0.00 58 1056.0
20260906060057 68 281 4.0 7.0 0.00 0.00 0.00 59 1056.0
20260906060033 68 278 4.0 7.0 0.00 0.00 0.00 59 1056.0
20260906060021 68 278 4.0 8.0 0.00 0.00 0.00 59 1056.0
20260906060008 68 272 4.0 8.0 0.00 0.00 0.00 59 1056.0
20260906055735 68 272 4.0 8.0 0.00 0.00 0.00 59 1056.0
20260906055726 68 273 4.0 8.0 0.00 0.00 0.00 59 1056.0
20260906055713 68 273 4.0 8.0 0.00 0.00 0.00 59 1056.0
20260906055703 68 276 4.0 8.0 0.00 0.00 0.00 59 1056.0
20260906055440 68 276 4.0 8.0 0.00 0.00 0.00 59 1056.0
20260906055432 68 275 4.0 8.0 0.00 0.00 0.00 59 1056.0
20260906055422 68 277 5.0 8.0 0.00 0.00 0.00 58 1055.8
20260906055407 68 275 5.0 8.0 0.00 0.00 0.00 59 1056.0
20260906054921 67 280 5.0 7.0 0.00 0.00 0.00 59 1055.8
20260906054653 67 294 4.0 7.0 0.00 0.00 0.00 60 1056.0
20260906054329 67 282 4.0 7.0 0.00 0.00 0.00 61 1055.8
20260906054302 67 276 4.0 7.0 0.00 0.00 0.00 61 1055.8
20260906054229 67 270 4.0 7.0 0.00 0.00 0.00 61 1055.8
20260906054128 67 277 4.0 7.0 0.00 0.00 0.00 62 1055.8
20260906054031 67 275 3.0 7.0 0.00 0.00 0.00 62 1055.8
20260906053939 67 271 3.0 6.0 0.00 0.00 0.00 62 1055.8
20260906053930 67 269 3.0 6.0 0.00 0.00 0.00 62 1055.8
20260906053921 67 270 3.0 6.0 0.00 0.00 0.00 62 1055.8
20260906053908 67 271 3.0 6.0 0.00 0.00 0.00 62 1055.8
20260906053640 67 276 3.0 6.0 0.00 0.00 0.00 62 1055.8
20260906053626 67 276 3.0 6.0 0.00 0.00 0.00 62 1055.8
20260906053605 67 276 3.0 6.0 0.00 0.00 0.00 63 1055.8
20260906053334 67 276 3.0 6.0 0.00 0.00 0.00 63 1055.8
20260906053101 67 276 3.0 6.0 0.00 0.00 0.00 62 1055.8
20260906052826 67 275 3.0 6.0 0.00 0.00 0.00 62 1055.8
20260906052820 67 276 3.0 6.0 0.00 0.00 0.00 62 1055.8
20260906052806 67 276 4.0 7.0 0.00 0.00 0.00 63 1055.7
20260906052755 67 275 3.0 7.0 0.00 0.00 0.00 63 1055.7
20260906052524 67 275 3.0 7.0 0.00 0.00 0.00 63 1055.7
20260906052247 67 275 3.0 7.0 0.00 0.00 0.00 63 1055.8
20260906052237 67 275 3.0 7.0 0.00 0.00 0.00 63 1055.7
20260906051912 67 274 4.0 7.0 0.00 0.00 0.00 63 1055.7
20260906051815 67 274 4.0 7.0 0.00 0.00 0.00 63 1055.7
20260906051804 67 274 3.0 7.0 0.00 0.00 0.00 63 1055.7
20260906051709 67 274 3.0 7.0 0.00 0.00 0.00 63 1055.7
20260906051608 67 274 3.0 6.0 0.00 0.00 0.00 63 1055.8
20260906051508 67 274 3.0 6.0 0.00 0.00 0.00 63 1055.7
20260906051406 67 274 3.0 6.0 0.00 0.00 0.00 63 1055.7
20260906051313 67 274 3.0 6.0 0.00 0.00 0.00 63 1055.7
20260906051305 67 274 4.0 6.0 0.00 0.00 0.00 63 1055.7
20260906051234 67 273 4.0 6.0 0.00 0.00 0.00 63 1055.7
20260906051222 67 274 4.0 6.0 0.00 0.00 0.00 64 1055.7
20260906051207 68 274 4.0 6.0 0.00 0.00 0.00 64 1055.7
20260906051157 68 274 4.0 6.0 0.00 0.00 0.00 63 1055.6
20260906050933 68 274 4.0 7.0 0.00 0.00 0.00 62 1055.6
20260906050605 68 274 4.0 7.0 0.00 0.00 0.00 62 1055.6
20260906050543 68 274 4.0 7.0 0.00 0.00 0.00 61 1055.6
20260906050535 68 278 4.0 7.0 0.00 0.00 0.00 61 1055.6
20260906050305 68 280 4.0 7.0 0.00 0.00 0.00 61 1055.7
20260906050235 68 280 4.0 7.0 0.00 0.00 0.00 61 1055.7
20260906050226 68 275 4.0 7.0 0.00 0.00 0.00 61 1055.7
20260906045947 68 274 4.0 7.0 0.00 0.00 0.00 62 1055.7
20260906045937 68 275 4.0 7.0 0.00 0.00 0.00 62 1055.6
20260906045930 68 274 4.0 7.0 0.00 0.00 0.00 62 1055.6
20260906045553 68 276 4.0 7.0 0.00 0.00 0.00 61 1055.7
20260906045453 68 277 4.0 7.0 0.00 0.00 0.00 62 1055.7
20260906045435 68 275 4.0 7.0 0.00 0.00 0.00 62 1055.6
20260906045424 68 275 4.0 7.0 0.00 0.00 0.00 61 1055.7
20260906045419 68 274 4.0 7.0 0.00 0.00 0.00 61 1055.7
20260906045049 68 273 4.0 8.0 0.00 0.00 0.00 61 1055.7
20260906044949 68 272 4.0 8.0 0.00 0.00 0.00 62 1055.7
20260906044932 68 270 4.0 8.0 0.00 0.00 0.00 62 1055.6
20260906044921 68 268 4.0 8.0 0.00 0.00 0.00 62 1055.6
20260906044915 68 268 4.0 8.0 0.00 0.00 0.00 62 1055.6
20260906044542 68 276 4.0 8.0 0.00 0.00 0.00 61 1055.7
20260906044443 68 275 4.0 8.0 0.00 0.00 0.00 62 1055.7
20260906044344 68 276 4.0 8.0 0.00 0.00 0.00 62 1055.8
20260906044303 68 275 4.0 8.0 0.00 0.00 0.00 62 1055.7
20260906044243 68 275 4.0 8.0 0.00 0.00 0.00 62 1055.7
20260906044140 68 272 4.0 8.0 0.00 0.00 0.00 61 1055.7
20260906044044 68 279 4.0 7.0 0.00 0.00 0.00 61 1055.8
20260906044035 68 278 4.0 7.0 0.00 0.00 0.00 61 1055.7
20260906044022 68 279 4.0 7.0 0.00 0.00 0.00 61 1055.8
20260906043732 68 276 4.0 7.0 0.00 0.00 0.00 62 1055.8
20260906043630 68 280 4.0 9.0 0.00 0.00 0.00 62 1055.8
20260906043529 69 277 5.0 9.0 0.00 0.00 0.00 63 1055.8
20260906043428 69 276 5.0 9.0 0.00 0.00 0.00 63 1055.8
20260906043327 69 277 5.0 9.0 0.00 0.00 0.00 62 1055.8
20260906043303 69 277 5.0 9.0 0.00 0.00 0.00 61 1055.8
20260906043227 69 277 5.0 9.0 0.00 0.00 0.00 61 1055.8
20260906043124 69 280 5.0 9.0 0.00 0.00 0.00 61 1055.8
20260906043027 69 280 6.0 9.0 0.00 0.00 0.00 60 1055.8
20260906042923 69 276 6.0 9.0 0.00 0.00 0.00 61 1055.8
20260906042823 69 283 6.0 9.0 0.00 0.00 0.00 61 1055.8
20260906042802 69 276 6.0 9.0 0.00 0.00 0.00 61 1056.0
20260906042721 69 274 6.0 9.0 0.00 0.00 0.00 61 1056.0
20260906042623 69 283 6.0 8.0 0.00 0.00 0.00 61 1055.8
20260906042521 69 280 6.0 8.0 0.00 0.00 0.00 62 1056.0
20260906042420 69 281 6.0 8.0 0.00 0.00 0.00 62 1055.8
20260906042306 69 280 6.0 8.0 0.00 0.00 0.00 62 1056.0
20260906042219 69 285 6.0 8.0 0.00 0.00 0.00 62 1056.0
20260906042119 68 284 5.0 8.0 0.00 0.00 0.00 62 1055.8
20260906042023 68 296 5.0 8.0 0.00 0.00 0.00 62 1055.8
20260906041919 68 283 5.0 8.0 0.00 0.00 0.00 63 1056.0
20260906041841 68 283 5.0 8.0 0.00 0.00 0.00 63 1056.0
20260906041830 68 294 5.0 8.0 0.00 0.00 0.00 63 1056.0
20260906041823 68 287 5.0 8.0 0.00 0.00 0.00 63 1056.0
20260906041810 68 287 5.0 8.0 0.00 0.00 0.00 63 1056.0
20260906041800 68 280 5.0 8.0 0.00 0.00 0.00 64 1056.0
20260906041750 68 292 5.0 8.0 0.00 0.00 0.00 65 1056.0
20260906041523 68 285 5.0 8.0 0.00 0.00 0.00 65 1056.0
20260906041516 68 283 5.0 8.0 0.00 0.00 0.00 65 1056.0
20260906041508 68 283 5.0 8.0 0.00 0.00 0.00 65 1056.0
20260906041239 68 280 5.0 8.0 0.00 0.00 0.00 64 1056.0
20260906041007 68 283 5.0 8.0 0.00 0.00 0.00 64 1056.0
20260906041000 68 283 5.0 8.0 0.00 0.00 0.00 65 1056.0
20260906040727 67 280 4.0 8.0 0.00 0.00 0.00 65 1056.1
20260906040715 67 278 4.0 8.0 0.00 0.00 0.00 66 1056.0
20260906040706 67 285 4.0 8.0 0.00 0.00 0.00 66 1056.1
20260906040442 67 285 4.0 7.0 0.00 0.00 0.00 67 1056.1
20260906040429 67 285 4.0 6.0 0.00 0.00 0.00 67 1056.0
20260906040154 68 285 4.0 7.0 0.00 0.00 0.00 68 1056.1
20260906035928 68 285 4.0 7.0 0.00 0.00 0.00 68 1056.1
20260906035919 68 285 4.0 8.0 0.00 0.00 0.00 68 1056.1
20260906035906 68 285 4.0 8.0 0.00 0.00 0.00 67 1056.1
20260906035854 68 285 4.0 8.0 0.00 0.00 0.00 67 1056.1
20260906035846 68 285 5.0 8.0 0.00 0.00 0.00 66 1056.1
20260906035619 68 285 5.0 8.0 0.00 0.00 0.00 66 1056.1
20260906035609 68 285 5.0 8.0 0.00 0.00 0.00 66 1056.1
20260906035117 68 283 4.0 8.0 0.00 0.00 0.00 67 1056.1
20260906035105 68 279 4.0 8.0 0.00 0.00 0.00 67 1056.1
20260906035059 68 279 4.0 8.0 0.00 0.00 0.00 67 1056.1
20260906035050 68 282 4.0 7.0 0.00 0.00 0.00 67 1056.1
20260906035042 68 283 4.0 7.0 0.00 0.00 0.00 66 1056.1
20260906035032 68 281 4.0 7.0 0.00 0.00 0.00 66 1056.1
20260906034758 68 278 4.0 8.0 0.00 0.00 0.00 66 1056.1
20260906033951 68 278 5.0 8.0 0.00 0.00 0.00 66 1056.2
20260906033852 68 278 5.0 8.0 0.00 0.00 0.00 66 1056.2
20260906033805 68 278 5.0 8.0 0.00 0.00 0.00 66 1056.2
20260906033750 68 278 5.0 8.0 0.00 0.00 0.00 66 1056.2
20260906033726 68 277 5.0 8.0 0.00 0.00 0.00 67 1056.2
20260906033716 68 276 5.0 8.0 0.00 0.00 0.00 67 1056.2
20260906033349 67 280 5.0 8.0 0.00 0.00 0.00 67 1056.2
20260906033303 67 292 5.0 8.0 0.00 0.00 0.00 68 1056.2
20260906033247 67 294 5.0 8.0 0.00 0.00 0.00 68 1056.2
20260906033222 67 283 5.0 8.0 0.00 0.00 0.00 68 1056.2
20260906033212 67 277 4.0 8.0 0.00 0.00 0.00 69 1056.2
20260906032846 67 277 4.0 8.0 0.00 0.00 0.00 69 1056.2
20260906032805 67 277 4.0 8.0 0.00 0.00 0.00 69 1056.2
20260906032746 67 277 4.0 8.0 0.00 0.00 0.00 69 1056.2
20260906032723 66 276 4.0 7.0 0.00 0.00 0.00 70 1056.3
20260906032715 66 278 3.0 7.0 0.00 0.00 0.00 70 1056.3
20260906032435 66 276 3.0 6.0 0.00 0.00 0.00 70 1056.3
20260906032422 66 276 3.0 6.0 0.00 0.00 0.00 70 1056.3
20260906032154 66 275 3.0 6.0 0.00 0.00 0.00 70 1056.4
20260906032139 66 276 3.0 6.0 0.00 0.00 0.00 70 1056.4
20260906032122 66 275 3.0 6.0 0.00 0.00 0.00 70 1056.4
20260906031853 66 275 3.0 6.0 0.00 0.00 0.00 70 1056.4
20260906031845 66 276 4.0 6.0 0.00 0.00 0.00 70 1056.4
20260906031615 66 275 4.0 7.0 0.00 0.00 0.00 70 1056.4
20260906031606 66 276 4.0 7.0 0.00 0.00 0.00 70 1056.4
20260906031558 66 275 4.0 7.0 0.00 0.00 0.00 69 1056.4
20260906031328 66 275 4.0 7.0 0.00 0.00 0.00 70 1056.4
20260906031054 66 278 4.0 7.0 0.00 0.00 0.00 70 1056.4
20260906031046 66 278 4.0 7.0 0.00 0.00 0.00 70 1056.4
20260906030548 67 278 4.0 7.0 0.00 0.00 0.00 70 1056.4
20260906030529 67 278 4.0 7.0 0.00 0.00 0.00 70 1056.4
20260906030519 67 278 4.0 7.0 0.00 0.00 0.00 70 1056.4
20260906030253 67 278 4.0 7.0 0.00 0.00 0.00 69 1056.3
20260906030243 67 278 4.0 7.0 0.00 0.00 0.00 69 1056.3
20260906025706 67 278 4.0 7.0 0.00 0.00 0.00 69 1056.4
20260906025605 67 278 4.0 7.0 0.00 0.00 0.00 69 1056.4
20260906025505 67 278 4.0 6.0 0.00 0.00 0.00 69 1056.3
20260906025405 67 278 4.0 6.0 0.00 0.00 0.00 69 1056.3
20260906025306 67 278 4.0 6.0 0.00 0.00 0.00 69 1056.4
20260906025207 67 278 4.0 6.0 0.00 0.00 0.00 69 1056.4
20260906025106 67 278 4.0 6.0 0.00 0.00 0.00 69 1056.4
20260906025005 67 278 4.0 6.0 0.00 0.00 0.00 69 1056.4
20260906024905 67 278 4.0 6.0 0.00 0.00 0.00 69 1056.4
20260906024802 67 278 4.0 6.0 0.00 0.00 0.00 69 1056.4
20260906024734 67 278 4.0 6.0 0.00 0.00 0.00 69 1056.4
20260906024726 67 278 4.0 6.0 0.00 0.00 0.00 69 1056.4
20260906024404 67 276 4.0 6.0 0.00 0.00 0.00 69 1056.3
20260906024304 67 277 4.0 6.0 0.00 0.00 0.00 69 1056.3
20260906024203 67 277 4.0 7.0 0.00 0.00 0.00 69 1056.3
20260906024103 67 277 4.0 7.0 0.00 0.00 0.00 69 1056.3
20260906024004 67 276 4.0 7.0 0.00 0.00 0.00 69 1056.4
20260906023902 67 276 4.0 7.0 0.00 0.00 0.00 70 1056.4
20260906023810 67 276 4.0 7.0 0.00 0.00 0.00 70 1056.3
20260906023801 67 276 4.0 7.0 0.00 0.00 0.00 70 1056.3
20260906023707 67 276 4.0 7.0 0.00 0.00 0.00 70 1056.4
20260906023658 67 276 4.0 7.0 0.00 0.00 0.00 70 1056.4
20260906023648 67 275 4.0 7.0 0.00 0.00 0.00 70 1056.4
20260906023623 67 276 4.0 7.0 0.00 0.00 0.00 71 1056.4
20260906023617 67 276 4.0 7.0 0.00 0.00 0.00 71 1056.4
20260906023608 67 276 3.0 6.0 0.00 0.00 0.00 71 1056.4
20260906023338 67 276 3.0 6.0 0.00 0.00 0.00 71 1056.4
20260906023325 67 276 3.0 6.0 0.00 0.00 0.00 71 1056.4
20260906023055 67 276 3.0 6.0 0.00 0.00 0.00 71 1056.4
20260906022820 67 276 3.0 6.0 0.00 0.00 0.00 71 1056.4
20260906022546 67 275 3.0 6.0 0.00 0.00 0.00 71 1056.4
20260906022534 67 276 3.0 6.0 0.00 0.00 0.00 71 1056.4
20260906022528 67 276 3.0 6.0 0.00 0.00 0.00 71 1056.4
20260906021952 67 280 2.0 4.0 0.00 0.00 0.00 71 1056.4
20260906021915 67 280 2.0 4.0 0.00 0.00 0.00 71 1056.4
20260906021910 67 280 2.0 4.0 0.00 0.00 0.00 71 1056.4
20260906021545 67 280 3.0 4.0 0.00 0.00 0.00 71 1056.4
20260906021536 67 280 3.0 4.0 0.00 0.00 0.00 71 1056.4
20260906021523 67 280 3.0 4.0 0.00 0.00 0.00 71 1056.4
20260906021239 67 280 3.0 4.0 0.00 0.00 0.00 70 1056.4
20260906021139 67 280 3.0 4.0 0.00 0.00 0.00 70 1056.4
20260906021039 67 280 3.0 4.0 0.00 0.00 0.00 70 1056.4
20260906020938 67 280 3.0 4.0 0.00 0.00 0.00 70 1056.4
20260906020817 68 281 3.0 6.0 0.00 0.00 0.00 70 1056.4
20260906020810 68 281 3.0 6.0 0.00 0.00 0.00 70 1056.4
20260906020802 68 280 3.0 6.0 0.00 0.00 0.00 70 1056.4
20260906020748 68 280 3.0 6.0 0.00 0.00 0.00 70 1056.4
20260906020732 68 282 3.0 6.0 0.00 0.00 0.00 70 1056.4
20260906020723 68 280 3.0 6.0 0.00 0.00 0.00 70 1056.4
20260906020454 68 281 3.0 6.0 0.00 0.00 0.00 70 1056.4
20260906020444 68 281 3.0 6.0 0.00 0.00 0.00 70 1056.4
20260906020435 68 281 3.0 6.0 0.00 0.00 0.00 70 1056.4
20260906020159 68 280 3.0 6.0 0.00 0.00 0.00 70 1056.4
20260906020146 68 280 3.0 6.0 0.00 0.00 0.00 70 1056.4
20260906015659 68 279 2.0 4.0 0.00 0.00 0.00 71 1056.4
20260906015641 68 279 2.0 4.0 0.00 0.00 0.00 71 1056.4
20260906015629 68 278 2.0 4.0 0.00 0.00 0.00 71 1056.4
20260906015400 68 279 2.0 4.0 0.00 0.00 0.00 71 1056.4
20260906015126 68 279 2.0 4.0 0.00 0.00 0.00 71 1056.4
20260906015113 68 279 2.0 4.0 0.00 0.00 0.00 71 1056.4
20260906014304 68 279 3.0 6.0 0.00 0.00 0.00 70 1056.5
20260906014211 68 278 3.0 7.0 0.00 0.00 0.00 71 1056.5
20260906014145 68 278 3.0 7.0 0.00 0.00 0.00 71 1056.5
20260906014137 68 278 4.0 7.0 0.00 0.00 0.00 71 1056.4
20260906013805 69 279 4.0 8.0 0.00 0.00 0.00 71 1056.5
20260906013709 69 279 4.0 8.0 0.00 0.00 0.00 71 1056.5
20260906013603 69 279 4.0 8.0 0.00 0.00 0.00 71 1056.5
20260906013503 69 279 4.0 8.0 0.00 0.00 0.00 71 1056.5
20260906013404 69 279 4.0 8.0 0.00 0.00 0.00 71 1056.4
20260906013305 69 279 4.0 8.0 0.00 0.00 0.00 71 1056.5
20260906013204 69 275 4.0 8.0 0.00 0.00 0.00 71 1056.5
20260906013103 69 278 4.0 8.0 0.00 0.00 0.00 71 1056.5
20260906013011 69 278 4.0 8.0 0.00 0.00 0.00 71 1056.5
20260906013000 69 274 3.0 8.0 0.00 0.00 0.00 72 1056.5
20260906012945 69 280 4.0 7.0 0.00 0.00 0.00 72 1056.5
20260906012936 69 280 4.0 7.0 0.00 0.00 0.00 72 1056.5
20260906012928 69 280 4.0 7.0 0.00 0.00 0.00 72 1056.5
20260906012912 69 280 4.0 7.0 0.00 0.00 0.00 72 1056.5
20260906012901 69 280 4.0 7.0 0.00 0.00 0.00 72 1056.5
20260906012103 69 274 4.0 7.0 0.00 0.00 0.00 72 1056.5
20260906012004 69 274 4.0 7.0 0.00 0.00 0.00 72 1056.5
20260906011901 69 273 3.0 7.0 0.00 0.00 0.00 72 1056.5
20260906011811 69 273 3.0 7.0 0.00 0.00 0.00 72 1056.5
20260906011801 69 273 3.0 7.0 0.00 0.00 0.00 72 1056.5
20260906011700 69 275 3.0 7.0 0.00 0.00 0.00 72 1056.4
20260906011603 69 276 3.0 7.0 0.00 0.00 0.00 72 1056.5
20260906011500 69 276 3.0 7.0 0.00 0.00 0.00 72 1056.5
20260906011355 69 276 3.0 7.0 0.00 0.00 0.00 72 1056.4
20260906011305 69 276 3.0 7.0 0.00 0.00 0.00 72 1056.5
20260906011255 69 275 3.0 7.0 0.00 0.00 0.00 72 1056.5
20260906011154 69 274 3.0 8.0 0.00 0.00 0.00 72 1056.5
20260906011053 69 273 3.0 8.0 0.00 0.00 0.00 72 1056.5
20260906011042 69 273 4.0 8.0 0.00 0.00 0.00 72 1056.5
20260906011031 69 274 4.0 8.0 0.00 0.00 0.00 72 1056.5
20260906011010 69 270 4.0 8.0 0.00 0.00 0.00 72 1056.5
20260906010651 69 276 4.0 8.0 0.00 0.00 0.00 72 1056.5
20260906010550 69 276 4.0 8.0 0.00 0.00 0.00 72 1056.5
20260906010450 69 276 4.0 8.0 0.00 0.00 0.00 72 1056.5
20260906010351 69 275 4.0 8.0 0.00 0.00 0.00 72 1056.6
20260906010301 69 275 4.0 8.0 0.00 0.00 0.00 72 1056.6
20260906010250 69 274 4.0 8.0 0.00 0.00 0.00 72 1056.6
20260906010152 69 272 4.0 8.0 0.00 0.00 0.00 73 1056.6
20260906010048 69 270 4.0 8.0 0.00 0.00 0.00 73 1056.6
20260906010015 69 267 4.0 8.0 0.00 0.00 0.00 72 1056.6
20260906010005 69 268 4.0 8.0 0.00 0.00 0.00 72 1056.6
20260906005944 69 265 4.0 8.0 0.00 0.00 0.00 72 1056.6
20260906005935 69 265 4.0 8.0 0.00 0.00 0.00 72 1056.6
20260906005435 69 273 4.0 7.0 0.00 0.00 0.00 72 1056.7
20260906005426 69 273 4.0 7.0 0.00 0.00 0.00 72 1056.8
20260906005417 69 272 4.0 7.0 0.00 0.00 0.00 72 1056.8
20260906005405 69 272 4.0 7.0 0.00 0.00 0.00 72 1056.7
20260906005351 69 272 4.0 7.0 0.00 0.00 0.00 72 1056.7
20260906005340 69 271 4.0 7.0 0.00 0.00 0.00 72 1056.7
20260906005329 69 272 4.0 7.0 0.00 0.00 0.00 72 1056.7
20260906005318 69 272 4.0 7.0 0.00 0.00 0.00 72 1056.7
20260906004607 69 255 3.0 7.0 0.00 0.00 0.00 72 1056.7
20260906004240 69 250 3.0 7.0 0.00 0.00 0.00 72 1056.7
20260906004215 69 249 3.0 7.0 0.00 0.00 0.00 72 1056.8
20260906004208 69 249 3.0 7.0 0.00 0.00 0.00 72 1056.7
20260906003839 69 249 3.0 7.0 0.00 0.00 0.00 72 1056.7
20260906003805 69 248 3.0 7.0 0.00 0.00 0.00 72 1056.7
20260906003758 69 245 3.0 7.0 0.00 0.00 0.00 72 1056.8
20260906003432 69 278 3.0 7.0 0.00 0.00 0.00 72 1056.8
20260906003332 69 277 3.0 6.0 0.00 0.00 0.00 72 1056.8
20260906003231 69 277 3.0 6.0 0.00 0.00 0.00 72 1056.8
20260906003132 69 277 3.0 6.0 0.00 0.00 0.00 72 1056.8
20260906003031 69 276 2.0 6.0 0.00 0.00 0.00 72 1056.9
20260906002930 69 276 2.0 6.0 0.00 0.00 0.00 72 1056.9
20260906002830 69 276 2.0 6.0 0.00 0.00 0.00 72 1056.8
20260906002730 69 276 2.0 6.0 0.00 0.00 0.00 72 1056.9
20260906002634 69 274 2.0 6.0 0.00 0.00 0.00 72 1056.8
20260906002531 69 274 2.0 6.0 0.00 0.00 0.00 73 1056.9
20260906002508 69 274 2.0 6.0 0.00 0.00 0.00 73 1056.9
20260906002458 69 274 2.0 6.0 0.00 0.00 0.00 73 1056.8
20260906002448 69 275 2.0 6.0 0.00 0.00 0.00 73 1056.9
20260906002126 69 273 2.0 4.0 0.00 0.00 0.00 73 1056.9
20260906002039 69 273 2.0 4.0 0.00 0.00 0.00 73 1056.8
20260906001926 69 272 2.0 4.0 0.00 0.00 0.00 73 1056.8
20260906001826 69 273 2.0 4.0 0.00 0.00 0.00 74 1056.8
20260906001758 69 272 2.0 4.0 0.00 0.00 0.00 74 1056.9
20260906001726 69 272 2.0 4.0 0.00 0.00 0.00 74 1056.9
20260906001626 69 272 2.0 4.0 0.00 0.00 0.00 74 1056.8
20260906001557 69 272 2.0 4.0 0.00 0.00 0.00 74 1056.8
20260906001548 69 272 2.0 4.0 0.00 0.00 0.00 74 1056.9
20260906001257 69 272 2.0 4.0 0.00 0.00 0.00 74 1056.9
20260906001225 69 272 2.0 4.0 0.00 0.00 0.00 74 1056.9
20260906001127 69 272 2.0 6.0 0.00 0.00 0.00 74 1056.9
20260906001023 69 272 2.0 6.0 0.00 0.00 0.00 74 1056.9
20260906000922 69 271 2.0 6.0 0.00 0.00 0.00 74 1056.9
20260906000822 69 272 2.0 6.0 0.00 0.00 0.00 74 1056.9
20260906000757 69 272 2.0 6.0 0.00 0.00 0.00 74 1056.9
20260906000722 69 272 2.0 6.0 0.00 0.00 0.00 74 1056.9
20260906000622 69 272 2.0 6.0 0.00 0.00 0.00 74 1056.9
20260906000538 69 272 2.0 6.0 0.00 0.00 0.00 74 1056.9
20260906000528 69 272 2.0 6.0 0.00 0.00 0.00 75 1057.0
20260906000515 69 271 2.0 6.0 0.00 0.00 0.00 75 1056.9
20260906000219 69 270 2.0 6.0 0.00 0.00 0.00 75 1057.0
20260906000118 69 270 2.0 6.0 0.00 0.00 0.00 75 1057.0
20260906000021 69 270 2.0 4.0 0.00 0.00 0.00 75 1057.0
20260905235919 69 270 2.0 4.0 0.00 0.00 0.00 75 1057.0
20260905235816 69 270 2.0 4.0 0.00 0.00 0.00 75 1057.0
20260905235755 69 270 2.0 4.0 0.00 0.00 0.00 75 1056.9
20260905235719 69 270 2.0 4.0 0.00 0.00 0.00 75 1056.9
20260905235615 69 268 2.0 4.0 0.00 0.00 0.00 75 1057.0
20260905235552 69 270 2.0 4.0 0.00 0.00 0.00 75 1057.0
20260905235542 69 269 2.0 4.0 0.00 0.00 0.00 75 1057.0
20260905235253 69 269 2.0 4.0 0.00 0.00 0.00 75 1057.0
20260905235215 69 269 2.0 4.0 0.00 0.00 0.00 75 1057.0
20260905235116 69 268 2.0 4.0 0.00 0.00 0.00 76 1057.0
20260905235015 69 268 2.0 4.0 0.00 0.00 0.00 76 1056.9
20260905234915 69 269 2.0 4.0 0.00 0.00 0.00 76 1057.0
20260905234815 69 268 2.0 4.0 0.00 0.00 0.00 76 1057.0
20260905234749 69 268 1.0 3.0 0.00 0.00 0.00 76 1057.1
20260905234721 69 269 1.0 3.0 0.00 0.00 0.00 76 1057.1
20260905234712 69 270 1.0 3.0 0.00 0.00 0.00 76 1057.0
20260905234705 69 269 1.0 3.0 0.00 0.00 0.00 76 1057.0
20260905234654 69 269 1.0 3.0 0.00 0.00 0.00 76 1057.0
20260905234631 69 268 2.0 6.0 0.00 0.00 0.00 76 1057.0
20260905234621 69 269 2.0 6.0 0.00 0.00 0.00 76 1057.0
20260905234135 69 269 2.0 6.0 0.00 0.00 0.00 76 1057.0
20260905233805 69 269 2.0 6.0 0.00 0.00 0.00 76 1057.0
20260905233748 69 269 2.0 6.0 0.00 0.00 0.00 76 1057.0
20260905233704 69 269 2.0 6.0 0.00 0.00 0.00 76 1057.0
20260905233604 69 269 3.0 6.0 0.00 0.00 0.00 76 1057.0
20260905233507 69 269 3.0 6.0 0.00 0.00 0.00 76 1057.1
20260905233406 69 269 3.0 6.0 0.00 0.00 0.00 76 1057.1
20260905233304 69 268 3.0 6.0 0.00 0.00 0.00 76 1057.1
20260905233247 69 268 3.0 6.0 0.00 0.00 0.00 76 1057.1
20260905233203 69 268 3.0 6.0 0.00 0.00 0.00 76 1057.1
20260905233104 69 268 3.0 6.0 0.00 0.00 0.00 77 1057.0
20260905233004 69 268 4.0 6.0 0.00 0.00 0.00 77 1057.1
20260905232905 69 268 4.0 6.0 0.00 0.00 0.00 77 1057.1
20260905232747 70 268 4.0 6.0 0.00 0.00 0.00 76 1057.1
20260905232733 70 268 4.0 6.0 0.00 0.00 0.00 76 1057.1
20260905232725 70 268 4.0 6.0 0.00 0.00 0.00 77 1057.1
20260905232400 70 268 3.0 6.0 0.00 0.00 0.00 76 1057.1
20260905232308 70 268 3.0 6.0 0.00 0.00 0.00 77 1057.1
20260905232300 70 268 3.0 6.0 0.00 0.00 0.00 77 1057.1
20260905232248 70 269 3.0 6.0 0.00 0.00 0.00 77 1057.2
20260905232236 70 268 3.0 6.0 0.00 0.00 0.00 77 1057.2
20260905232004 70 268 2.0 6.0 0.00 0.00 0.00 77 1057.2
20260905231654 70 268 2.0 6.0 0.00 0.00 0.00 77 1057.2
20260905231645 70 268 2.0 6.0 0.00 0.00 0.00 76 1057.2
20260905231635 71 268 2.0 6.0 0.00 0.00 0.00 76 1057.2
20260905231627 71 268 2.0 6.0 0.00 0.00 0.00 76 1057.2
20260905231611 71 268 2.0 6.0 0.00 0.00 0.00 76 1057.2
20260905231555 71 268 2.0 6.0 0.00 0.00 0.00 76 1057.2
20260905231547 71 268 2.0 6.0 0.00 0.00 0.00 76 1057.2
20260905231538 71 268 2.0 6.0 0.00 0.00 0.00 76 1057.2
20260905231527 71 268 2.0 6.0 0.00 0.00 0.00 76 1057.2
20260905230821 71 268 2.0 4.0 0.00 0.00 0.00 76 1057.2
20260905230551 71 268 2.0 6.0 0.00 0.00 0.00 76 1057.2
20260905230312 71 268 2.0 6.0 0.00 0.00 0.00 77 1057.3
20260905230304 71 268 2.0 6.0 0.00 0.00 0.00 77 1057.2
20260905230026 71 268 2.0 6.0 0.00 0.00 0.00 77 1057.2
20260905230009 71 268 2.0 6.0 0.00 0.00 0.00 77 1057.2
20260905225740 71 267 2.0 6.0 0.00 0.00 0.00 77 1057.3
20260905225641 71 267 3.0 6.0 0.00 0.00 0.00 77 1057.3
20260905225540 71 267 3.0 6.0 0.00 0.00 0.00 76 1057.3
20260905225440 71 267 2.0 6.0 0.00 0.00 0.00 76 1057.3
20260905225417 71 283 3.0 6.0 0.00 0.00 0.00 76 1057.3
20260905225406 71 283 3.0 6.0 0.00 0.00 0.00 76 1057.3
20260905225400 71 284 3.0 6.0 0.00 0.00 0.00 76 1057.3
20260905225036 71 283 3.0 6.0 0.00 0.00 0.00 76 1057.3
20260905224936 71 283 3.0 6.0 0.00 0.00 0.00 76 1057.3
20260905224836 71 283 3.0 6.0 0.00 0.00 0.00 76 1057.3
20260905224737 71 283 3.0 6.0 0.00 0.00 0.00 76 1057.3
20260905224638 71 283 3.0 6.0 0.00 0.00 0.00 76 1057.3
20260905224537 71 283 3.0 6.0 0.00 0.00 0.00 76 1057.3
20260905224520 71 283 3.0 6.0 0.00 0.00 0.00 76 1057.3
20260905224504 71 283 3.0 6.0 0.00 0.00 0.00 77 1057.3
20260905224234 71 283 3.0 6.0 0.00 0.00 0.00 77 1057.3
20260905224134 71 283 3.0 6.0 0.00 0.00 0.00 77 1057.3
20260905224034 71 283 3.0 6.0 0.00 0.00 0.00 77 1057.3
20260905223958 71 283 3.0 6.0 0.00 0.00 0.00 77 1057.3
20260905223948 71 282 3.0 6.0 0.00 0.00 0.00 77 1057.3
20260905223928 71 283 4.0 7.0 0.00 0.00 0.00 77 1057.2
20260905223659 71 283 4.0 7.0 0.00 0.00 0.00 77 1057.2
20260905223334 71 284 4.0 7.0 0.00 0.00 0.00 77 1057.3
20260905223234 71 283 4.0 7.0 0.00 0.00 0.00 77 1057.3
20260905223134 71 283 3.0 7.0 0.00 0.00 0.00 77 1057.3
20260905223112 71 282 3.0 7.0 0.00 0.00 0.00 77 1057.2
20260905223103 71 282 3.0 7.0 0.00 0.00 0.00 78 1057.3
20260905223045 71 278 3.0 7.0 0.00 0.00 0.00 78 1057.3
20260905223030 71 278 3.0 6.0 0.00 0.00 0.00 78 1057.2
20260905222802 72 277 3.0 6.0 0.00 0.00 0.00 78 1057.2
20260905222748 72 277 3.0 6.0 0.00 0.00 0.00 78 1057.2
20260905222739 72 276 3.0 6.0 0.00 0.00 0.00 78 1057.2
20260905222730 72 276 3.0 6.0 0.00 0.00 0.00 79 1057.3
20260905222504 72 274 3.0 6.0 0.00 0.00 0.00 79 1057.2
20260905222454 72 274 3.0 6.0 0.00 0.00 0.00 79 1057.2
20260905222219 72 274 3.0 7.0 0.00 0.00 0.00 79 1057.2
20260905222208 72 277 3.0 7.0 0.00 0.00 0.00 80 1057.2
20260905221630 72 277 3.0 8.0 0.00 0.00 0.00 80 1057.3
20260905221530 72 276 3.0 8.0 0.00 0.00 0.00 80 1057.2
20260905221433 72 277 3.0 8.0 0.00 0.00 0.00 80 1057.2
20260905221330 72 276 3.0 8.0 0.00 0.00 0.00 80 1057.2
20260905221241 72 276 3.0 8.0 0.00 0.00 0.00 80 1057.3
20260905221230 72 277 3.0 8.0 0.00 0.00 0.00 80 1057.3
20260905221202 72 274 3.0 8.0 0.00 0.00 0.00 80 1057.3
20260905221154 72 275 3.0 8.0 0.00 0.00 0.00 81 1057.2
20260905220830 72 273 3.0 8.0 0.00 0.00 0.00 81 1057.2
20260905220740 72 272 3.0 6.0 0.00 0.00 0.00 81 1057.3
20260905220730 72 271 3.0 6.0 0.00 0.00 0.00 81 1057.3
20260905220630 72 270 3.0 6.0 0.00 0.00 0.00 81 1057.3
20260905220530 72 270 3.0 6.0 0.00 0.00 0.00 82 1057.3
20260905220430 72 268 3.0 6.0 0.00 0.00 0.00 82 1057.3
20260905220333 72 268 3.0 6.0 0.00 0.00 0.00 82 1057.3
20260905220229 72 268 3.0 6.0 0.00 0.00 0.00 82 1057.3
20260905220130 72 266 3.0 7.0 0.00 0.00 0.00 82 1057.3
20260905220031 72 266 3.0 7.0 0.00 0.00 0.00 82 1057.3
20260905220012 72 266 3.0 7.0 0.00 0.00 0.00 82 1057.3
20260905215959 72 264 3.0 7.0 0.00 0.00 0.00 83 1057.2
20260905215728 72 264 3.0 7.0 0.00 0.00 0.00 83 1057.3
20260905215627 72 264 3.0 7.0 0.00 0.00 0.00 83 1057.2
20260905215524 72 263 3.0 7.0 0.00 0.00 0.00 83 1057.2
20260905215506 72 263 3.0 7.0 0.00 0.00 0.00 83 1057.2
20260905215456 72 261 3.0 7.0 0.00 0.00 0.00 84 1057.3
20260905215446 72 261 3.0 7.0 0.00 0.00 0.00 84 1057.2
20260905215118 72 273 2.0 7.0 0.00 0.00 0.00 84 1057.3
20260905215023 72 272 2.0 7.0 0.00 0.00 0.00 84 1057.3
20260905215012 72 272 2.0 7.0 0.00 0.00 0.00 84 1057.2
20260905214958 72 272 3.0 7.0 0.00 0.00 0.00 84 1057.2
20260905214947 72 272 3.0 7.0 0.00 0.00 0.00 84 1057.2
20260905214940 72 272 3.0 7.0 0.00 0.00 0.00 84 1057.3
20260905214712 72 250 3.0 4.0 0.00 0.00 0.00 85 1057.3
20260905214701 72 251 3.0 4.0 0.00 0.00 0.00 85 1057.3
20260905214431 72 251 3.0 4.0 0.00 0.00 0.00 85 1057.3
20260905214420 72 251 3.0 4.0 0.00 0.00 0.00 85 1057.2
20260905214147 72 250 2.0 4.0 0.00 0.00 0.00 85 1057.3
20260905213805 72 250 2.0 4.0 0.00 0.00 0.00 86 1057.3
20260905213722 72 250 2.0 4.0 0.00 0.00 0.00 86 1057.3
20260905213714 72 250 3.0 5.0 0.00 0.00 0.00 86 1057.2
20260905213659 72 250 2.0 5.0 0.00 0.00 0.00 86 1057.2
20260905213648 72 250 2.0 5.0 0.00 0.00 0.00 86 1057.3
20260905213424 72 250 2.0 5.0 0.00 0.00 0.00 86 1057.3
20260905213101 72 250 3.0 5.0 0.00 0.00 0.00 86 1057.2
20260905213000 72 250 3.0 5.0 0.00 0.00 0.00 86 1057.3
20260905212858 72 250 3.0 5.0 0.00 0.00 0.00 86 1057.3
20260905212757 73 249 2.0 5.0 0.00 0.00 0.00 86 1057.3
20260905212733 73 250 2.0 5.0 0.00 0.00 0.00 87 1057.3
20260905212657 73 250 2.0 5.0 0.00 0.00 0.00 87 1057.2
20260905212555 73 221 2.0 4.0 0.00 0.00 0.00 87 1057.2
20260905212521 73 220 2.0 4.0 0.00 0.00 0.00 87 1057.2
20260905212512 73 220 2.0 4.0 0.00 0.00 0.00 87 1057.2
20260905212233 73 220 2.0 4.0 0.00 0.00 0.00 87 1057.3
20260905212151 73 220 2.0 4.0 0.00 0.00 0.00 87 1057.3
20260905212049 73 219 2.0 4.0 0.00 0.00 0.00 87 1057.3
20260905211949 73 219 2.0 4.0 0.00 0.00 0.00 87 1057.3
20260905211849 73 219 2.0 4.0 0.00 0.00 0.00 87 1057.3
20260905211732 73 218 2.0 4.0 0.00 0.00 0.00 87 1057.3
20260905211643 73 218 2.0 4.0 0.00 0.00 0.00 87 1057.3
20260905211542 73 219 2.0 4.0 0.00 0.00 0.00 87 1057.2
20260905211443 73 218 2.0 4.0 0.00 0.00 0.00 87 1057.2
20260905211342 73 212 2.0 4.0 0.00 0.00 0.00 87 1057.3
20260905211231 73 212 2.0 4.0 0.00 0.00 0.00 87 1057.2
20260905211138 73 212 2.0 4.0 0.00 0.00 0.00 87 1057.2
20260905211109 73 210 2.0 4.0 0.00 0.00 0.00 87 1057.2
20260905211100 73 211 2.0 4.0 0.00 0.00 0.00 87 1057.2
20260905210733 73 210 2.0 4.0 0.00 0.00 0.00 87 1057.3
20260905210632 73 211 2.0 4.0 0.00 0.00 0.00 87 1057.3
20260905210531 73 211 2.0 4.0 0.00 0.00 0.00 87 1057.3
20260905210429 74 210 2.0 4.0 0.00 0.00 0.00 87 1057.3
20260905210403 74 211 2.0 4.0 0.00 0.00 0.00 87 1057.3
20260905210347 74 210 2.0 4.0 0.00 0.00 0.00 87 1057.4
20260905210027 74 210 2.0 4.0 0.00 0.00 0.00 87 1057.4
20260905205923 74 210 2.0 3.0 0.00 0.00 0.00 87 1057.5
20260905205823 74 210 2.0 3.0 0.00 0.00 0.00 87 1057.4
20260905205720 74 211 2.0 3.0 0.00 0.00 0.00 87 1057.4
20260905205703 74 211 2.0 3.0 0.00 0.00 0.00 87 1057.5
20260905205657 74 211 2.0 3.0 0.00 0.00 0.00 87 1057.4
20260905205643 74 210 2.0 3.0 0.00 0.00 0.00 87 1057.4
20260905205411 74 210 2.0 3.0 0.00 0.00 0.00 87 1057.4
20260905205357 74 210 2.0 3.0 0.00 0.00 0.00 87 1057.4
20260905204811 74 210 2.0 3.0 0.00 0.00 0.00 87 1057.4
20260905204710 74 210 2.0 3.0 0.00 0.00 0.00 86 1057.4
20260905204608 74 210 2.0 3.0 0.00 0.00 0.00 86 1057.5
20260905204512 74 210 2.0 3.0 0.00 0.00 0.00 86 1057.4
20260905204409 74 210 2.0 3.0 0.00 0.00 0.00 86 1057.4
20260905204351 74 210 2.0 3.0 0.00 0.00 0.00 86 1057.5
20260905204341 74 210 2.0 3.0 0.00 0.00 0.00 86 1057.5
20260905204336 74 210 2.0 3.0 0.00 0.00 0.00 86 1057.4
20260905204324 74 210 2.0 3.0 0.00 0.00 0.00 86 1057.5
20260905204055 74 210 2.0 3.0 0.00 0.00 0.00 86 1057.5
20260905204040 75 210 2.0 3.0 0.00 0.00 0.00 86 1057.4
20260905203811 75 210 2.0 3.0 0.00 0.00 0.00 86 1057.4
20260905203805 75 210 2.0 3.0 0.00 0.00 0.00 86 1057.4
20260905203751 75 210 2.0 3.0 0.00 0.00 0.00 86 1057.4
20260905203209 75 210 2.0 3.0 0.00 0.00 0.00 86 1057.4
20260905203107 75 210 2.0 3.0 0.00 0.00 0.00 86 1057.4
20260905203006 75 210 2.0 3.0 0.00 0.00 0.00 86 1057.4
20260905202904 75 210 2.0 3.0 0.00 0.00 0.00 86 1057.4
20260905202804 75 210 2.0 3.0 0.00 0.00 0.00 86 1057.4
20260905202728 75 209 2.0 3.0 0.00 0.00 0.00 86 1057.4
20260905202704 75 210 2.0 3.0 0.00 0.00 0.00 85 1057.4
20260905202604 75 210 2.0 3.0 0.00 0.00 0.00 85 1057.4
20260905202505 75 210 2.0 3.0 0.00 0.00 0.00 85 1057.4
20260905202403 75 210 2.0 3.0 0.00 0.00 0.00 85 1057.5
20260905202306 75 210 2.0 3.0 0.00 0.00 0.00 85 1057.5
20260905202203 75 210 2.0 3.0 0.00 0.00 0.00 85 1057.5
20260905202141 75 210 2.0 3.0 0.00 0.00 0.00 85 1057.5
20260905202127 75 210 2.0 3.0 0.00 0.00 0.00 85 1057.5
20260905201802 76 211 2.0 3.0 0.00 0.00 0.00 85 1057.4
20260905201725 76 210 2.0 3.0 0.00 0.00 0.00 85 1057.4
20260905201700 76 210 2.0 3.0 0.00 0.00 0.00 85 1057.4
20260905201559 76 210 2.0 3.0 0.00 0.00 0.00 85 1057.4
20260905201459 76 210 2.0 3.0 0.00 0.00 0.00 85 1057.4
20260905201432 76 210 1.0 3.0 0.00 0.00 0.00 85 1057.5
20260905201414 76 210 1.0 3.0 0.00 0.00 0.00 85 1057.4
20260905201400 76 210 1.0 3.0 0.00 0.00 0.00 85 1057.5
20260905201352 76 210 1.0 3.0 0.00 0.00 0.00 85 1057.5
20260905201119 76 123 0.0 3.0 0.00 0.00 0.00 84 1057.4
20260905200853 76 123 0.0 3.0 0.00 0.00 0.00 84 1057.4
20260905200843 76 123 0.0 3.0 0.00 0.00 0.00 84 1057.4
20260905200832 76 122 0.0 0.0 0.00 0.00 0.00 84 1057.4
20260905200223 76 122 0.0 0.0 0.00 0.00 0.00 83 1057.4
20260905200150 76 122 0.0 0.0 0.00 0.00 0.00 83 1057.4
20260905200141 76 122 0.0 0.0 0.00 0.00 0.00 83 1057.4
20260905200131 76 122 0.0 0.0 0.00 0.00 0.00 83 1057.3
20260905200118 76 122 0.0 0.0 0.00 0.00 0.00 83 1057.3
20260905200058 76 122 0.0 0.0 0.00 0.00 0.00 83 1057.3
20260905200052 76 122 0.0 0.0 0.00 0.00 0.00 83 1057.3
20260905195821 76 121 0.0 0.0 0.00 0.00 0.00 83 1057.2
20260905195812 77 122 0.0 0.0 0.00 0.00 0.00 83 1057.2
20260905195758 77 121 0.0 0.0 0.00 0.00 0.00 82 1057.2
20260905195531 77 122 0.0 0.0 0.00 0.00 0.00 82 1057.2
20260905195306 77 122 0.0 0.0 0.00 0.00 0.00 82 1057.2
20260905195253 77 122 0.0 0.0 0.00 0.00 0.00 82 1057.2
20260905194757 77 122 0.0 0.0 0.00 0.00 0.00 82 1057.2
20260905194505 77 122 0.0 0.0 0.00 0.00 0.00 82 1057.2
20260905194456 77 122 0.0 0.0 0.00 0.00 0.00 82 1057.2
20260905194220 77 122 0.0 0.0 0.00 0.00 0.00 82 1057.2
20260905194132 77 122 0.0 0.0 0.00 0.00 0.00 81 1057.2
20260905194033 77 122 0.0 0.0 0.00 0.00 0.00 81 1057.2
20260905193927 77 122 0.0 0.0 0.00 0.00 0.00 81 1057.2
20260905193834 77 121 0.0 0.0 0.00 0.00 0.00 81 1057.2
20260905193818 78 122 0.0 0.0 0.00 0.00 0.00 81 1057.2
20260905193810 78 121 0.0 0.0 0.00 0.00 0.00 81 1057.2
20260905193803 78 122 0.0 0.0 0.00 0.00 0.00 81 1057.2
20260905193752 78 121 0.0 0.0 0.00 0.00 0.00 81 1057.2
20260905193743 78 121 0.0 0.0 0.00 0.00 0.00 81 1057.2
20260905193512 78 122 0.0 0.0 0.00 0.00 0.00 81 1057.2
20260905193248 78 121 0.0 0.0 0.00 0.00 0.00 81 1057.2
20260905192924 78 121 0.0 0.0 0.00 0.00 0.00 81 1057.1
20260905192825 78 122 0.0 0.0 0.00 0.00 0.00 80 1057.1
20260905192733 78 122 0.0 0.0 0.00 0.00 0.00 80 1057.1
20260905192725 78 121 0.0 0.0 0.00 0.00 0.00 80 1057.1
20260905192717 78 122 0.0 0.0 0.00 0.00 0.00 80 1057.0
20260905192706 78 121 0.0 0.0 0.00 0.00 0.00 80 1057.1
20260905192657 78 121 0.0 0.0 0.00 0.00 0.00 80 1057.1
20260905192141 78 121 0.0 0.0 0.00 0.00 0.00 80 1057.0
20260905192129 78 122 0.0 0.0 0.00 0.00 0.00 80 1057.0
20260905192120 78 122 0.0 0.0 0.00 0.00 0.00 80 1057.0
20260905191840 79 122 0.0 0.0 0.00 0.00 0.00 80 1057.0
20260905191513 79 121 0.0 0.0 0.00 0.00 0.00 79 1057.0
20260905191413 79 122 0.0 0.0 0.00 0.00 0.00 79 1056.9
20260905191312 79 121 0.0 0.0 0.00 0.00 0.00 79 1056.9
20260905191238 79 121 0.0 0.0 0.00 0.00 0.00 79 1056.9
20260905191230 79 122 0.0 0.0 0.00 0.00 0.00 79 1056.8
20260905190906 79 122 0.0 0.0 0.00 0.00 0.00 78 1056.8
20260905190806 79 121 0.0 0.0 0.00 0.00 0.00 78 1056.8
20260905190713 79 122 0.0 0.0 0.00 0.00 0.00 78 1056.8
20260905190706 79 121 0.0 0.0 0.00 0.00 0.00 78 1056.8
20260905190606 79 121 0.0 0.0 0.00 0.00 0.00 78 1056.8
20260905190509 79 122 0.0 0.0 0.00 0.00 0.00 77 1056.8
20260905190404 80 121 0.0 0.0 0.00 0.00 0.00 77 1056.8
20260905190307 80 121 0.0 0.0 0.00 0.00 0.00 77 1056.8
20260905190214 80 122 0.0 0.0 0.00 0.00 0.00 77 1056.8
20260905190206 80 121 0.0 0.0 0.00 0.00 0.00 77 1056.8
20260905190105 80 121 0.0 0.0 0.00 0.00 0.00 77 1056.8
20260905190006 80 122 0.0 0.0 0.00 0.00 0.00 77 1056.8
20260905185904 80 122 0.0 0.0 0.00 0.00 0.00 77 1056.8
20260905185806 80 121 0.0 0.0 0.00 0.00 0.00 77 1056.8
20260905185714 80 121 0.0 0.0 0.00 0.00 0.00 78 1056.8
20260905185704 80 122 0.0 0.0 0.00 0.00 0.00 78 1056.8
20260905185603 80 121 0.0 0.0 0.00 0.00 0.00 78 1056.8
20260905185505 80 121 0.0 0.0 0.00 0.00 0.00 78 1056.7
20260905185405 80 122 0.0 0.0 0.00 0.00 0.00 78 1056.7
20260905185306 80 121 0.0 0.0 0.00 0.00 0.00 78 1056.8
20260905185214 80 122 0.0 0.0 0.00 0.00 0.00 78 1056.8
20260905185203 80 121 0.0 0.0 0.00 0.00 0.00 78 1056.8
20260905185106 80 121 0.0 0.0 0.00 0.00 0.00 78 1056.7
20260905185047 80 121 0.0 0.0 0.00 0.00 0.00 78 1056.8
20260905185037 80 121 0.0 0.0 0.00 0.00 0.00 77 1056.7
20260905185027 81 121 0.0 0.0 0.00 0.00 0.00 77 1056.7
20260905185014 81 122 0.0 0.0 0.00 0.00 0.00 77 1056.7
20260905185007 81 121 0.0 0.0 0.00 0.00 0.00 77 1056.7
20260905184959 81 121 0.0 0.0 0.00 0.00 0.00 76 1056.7
20260905184951 81 122 0.0 0.0 0.00 0.00 0.00 76 1056.7
20260905184943 81 122 0.0 0.0 0.00 0.00 0.00 76 1056.7
20260905184231 81 121 0.0 0.0 0.00 0.00 0.00 75 1056.7
20260905183902 81 121 0.0 0.0 0.00 0.00 0.00 75 1056.6
20260905183756 81 121 0.0 1.0 0.00 0.00 0.00 75 1056.6
20260905183711 81 122 0.0 1.0 0.00 0.00 0.00 75 1056.6
20260905183656 81 122 0.0 1.0 0.00 0.00 0.00 75 1056.6
20260905183556 81 121 0.0 1.0 0.00 0.00 0.00 75 1056.6
20260905183456 82 121 0.0 1.0 0.00 0.00 0.00 75 1056.6
20260905183356 82 122 0.0 2.0 0.00 0.00 0.00 75 1056.6
20260905183230 82 121 0.0 3.0 0.00 0.00 0.00 75 1056.6
20260905183223 82 121 0.0 3.0 0.00 0.00 0.00 74 1056.6
20260905183215 82 121 0.0 3.0 0.00 0.00 0.00 74 1056.6
20260905182851 82 121 1.0 3.0 0.00 0.00 0.00 74 1056.6
20260905182750 82 122 1.0 3.0 0.00 0.00 0.00 74 1056.6
20260905182711 82 121 1.0 3.0 0.00 0.00 0.00 74 1056.6
20260905182705 82 122 1.0 3.0 0.00 0.00 0.00 74 1056.6
20260905182655 82 121 1.0 3.0 0.00 0.00 0.00 73 1056.5
20260905182641 82 122 1.0 3.0 0.00 0.00 0.00 73 1056.6
20260905182631 82 122 0.0 3.0 0.00 0.00 0.00 73 1056.6
20260905182403 82 121 0.0 2.0 0.00 0.00 0.00 73 1056.5
20260905182047 82 121 0.0 2.0 0.00 0.00 0.00 73 1056.5
20260905182009 82 122 0.0 2.0 0.00 0.00 0.00 73 1056.5
20260905181956 83 122 0.0 2.0 0.00 0.00 0.00 73 1056.5
20260905181943 83 121 0.0 2.0 0.00 0.00 0.00 73 1056.5
20260905181717 83 121 1.0 2.0 0.00 0.00 0.00 73 1056.5
20260905181708 83 121 1.0 3.0 0.00 0.00 0.00 72 1056.5
20260905181435 83 121 1.0 4.0 0.00 0.00 0.00 72 1056.5
20260905181420 83 122 1.0 4.0 0.00 0.00 0.00 72 1056.5
20260905181135 83 121 1.0 4.0 0.00 0.00 0.00 72 1056.5
20260905181034 83 121 1.0 4.0 0.00 0.00 0.00 72 1056.5
20260905180932 83 122 1.0 4.0 0.00 0.00 0.00 72 1056.5
20260905180835 83 121 1.0 4.0 0.00 0.00 0.00 71 1056.5
20260905180733 83 121 1.0 4.0 0.00 0.00 0.00 71 1056.5
20260905180702 83 122 1.0 4.0 0.00 0.00 0.00 71 1056.5
20260905180632 83 122 1.0 4.0 0.00 0.00 0.00 71 1056.5
20260905180604 83 121 1.0 4.0 0.00 0.00 0.00 70 1056.5
20260905180554 83 214 1.0 3.0 0.00 0.00 0.00 70 1056.5
20260905180228 83 215 1.0 4.0 0.00 0.00 0.00 69 1056.4
20260905180202 83 215 2.0 4.0 0.00 0.00 0.00 69 1056.5
20260905180129 84 215 2.0 5.0 0.00 0.00 0.00 69 1056.5
20260905180029 84 215 2.0 5.0 0.00 0.00 0.00 69 1056.4
20260905175924 84 214 1.0 5.0 0.00 0.00 0.00 69 1056.4
20260905175829 84 215 1.0 5.0 0.00 0.00 0.00 69 1056.4
20260905175809 84 215 1.0 5.0 0.00 0.00 0.00 69 1056.4
20260905175802 84 215 1.0 5.0 0.00 0.00 0.00 69 1056.4
20260905175529 84 214 1.0 5.0 0.00 0.00 0.00 68 1056.4
20260905175521 84 222 1.0 5.0 0.00 0.00 0.00 68 1056.5
20260905175510 84 223 2.0 6.0 0.00 0.00 0.00 68 1056.4
20260905175501 84 222 1.0 7.0 0.00 0.00 0.00 68 1056.4
20260905175449 84 179 2.0 7.0 0.00 0.00 0.00 68 1056.4
20260905175217 84 179 2.0 7.0 0.00 0.00 0.00 67 1056.4
20260905175207 84 179 3.0 7.0 0.00 0.00 0.00 67 1056.4
20260905175157 84 180 3.0 7.0 0.00 0.00 0.00 67 1056.4
20260905174930 85 180 3.0 7.0 0.00 0.00 0.00 67 1056.4
20260905174657 85 182 3.0 8.0 0.00 0.00 0.00 66 1056.4
20260905174423 85 197 3.0 8.0 0.00 0.00 0.00 65 1056.4
20260905174104 85 149 3.0 8.0 0.00 0.00 0.00 65 1056.4
20260905174003 85 195 3.0 8.0 0.00 0.00 0.00 65 1056.3
20260905173903 85 213 3.0 8.0 0.00 0.00 0.00 65 1056.3
20260905173803 85 218 3.0 8.0 0.00 0.00 0.00 64 1056.3
20260905173712 86 214 4.0 8.0 0.00 0.00 0.00 64 1056.3
20260905173703 86 214 4.0 8.0 0.00 0.00 0.00 64 1056.3
20260905173603 86 170 4.0 11.0 0.00 0.00 0.00 64 1056.3
20260905173502 86 185 3.0 11.0 0.00 0.00 0.00 63 1056.2
20260905173403 86 204 3.0 11.0 0.00 0.00 0.00 63 1056.3
20260905173300 86 226 3.0 11.0 0.00 0.00 0.00 63 1056.3
20260905173210 86 224 3.0 11.0 0.00 0.00 0.00 62 1056.3
20260905173200 86 226 3.0 11.0 0.00 0.00 0.00 62 1056.3
20260905173058 86 183 3.0 11.0 0.00 0.00 0.00 62 1056.3
20260905172958 86 197 4.0 11.0 0.00 0.00 0.00 62 1056.3
20260905172859 86 195 3.0 11.0 0.00 0.00 0.00 62 1056.3
20260905172757 86 202 3.0 11.0 0.00 0.00 0.00 62 1056.3
20260905172708 87 175 3.0 11.0 0.00 0.00 0.00 62 1056.3
20260905172656 87 179 3.0 11.0 0.00 0.00 0.00 61 1056.3
20260905172557 87 165 3.0 11.0 0.00 0.00 0.00 61 1056.3
20260905172454 87 235 3.0 11.0 0.00 0.00 0.00 61 1056.3
20260905172440 87 141 3.0 11.0 0.00 0.00 0.00 61 1056.3
20260905172426 87 141 4.0 11.0 0.00 0.00 0.00 60 1056.3
20260905172154 87 143 4.0 11.0 0.00 0.00 0.00 60 1056.3
20260905172054 87 197 4.0 11.0 0.00 0.00 0.00 60 1056.3
20260905171957 87 199 4.0 11.0 0.00 0.00 0.00 60 1056.3
20260905171946 87 176 4.0 11.0 0.00 0.00 0.00 59 1056.3
20260905171928 87 172 4.0 11.0 0.00 0.00 0.00 59 1056.3
20260905171652 88 143 4.0 11.0 0.00 0.00 0.00 59 1056.3
20260905171555 88 211 4.0 11.0 0.00 0.00 0.00 57 1056.3
20260905171503 88 208 4.0 11.0 0.00 0.00 0.00 57 1056.3
20260905171454 88 206 4.0 9.0 0.00 0.00 0.00 57 1056.2
20260905171427 88 186 4.0 9.0 0.00 0.00 0.00 56 1056.3
20260905171152 88 214 3.0 8.0 0.00 0.00 0.00 56 1056.2
20260905171119 88 204 4.0 8.0 0.00 0.00 0.00 56 1056.2
20260905171109 88 224 4.0 10.0 0.00 0.00 0.00 56 1056.2
20260905170747 88 211 4.0 10.0 0.00 0.00 0.00 55 1056.3
20260905170702 88 214 4.0 10.0 0.00 0.00 0.00 55 1056.3
20260905170646 88 214 4.0 10.0 0.00 0.00 0.00 55 1056.3
20260905170546 88 184 4.0 10.0 0.00 0.00 0.00 55 1056.2
20260905170446 88 191 4.0 10.0 0.00 0.00 0.00 55 1056.2
20260905170346 88 171 4.0 10.0 0.00 0.00 0.00 54 1056.3
20260905170244 88 152 4.0 10.0 0.00 0.00 0.00 54 1056.2
20260905170203 88 147 4.0 10.0 0.00 0.00 0.00 54 1056.2
20260905170144 88 145 4.0 10.0 0.00 0.00 0.00 54 1056.2
20260905170044 88 158 4.0 10.0 0.00 0.00 0.00 54 1056.3
20260905165942 88 181 4.0 10.0 0.00 0.00 0.00 54 1056.3
20260905165843 88 197 4.0 10.0 0.00 0.00 0.00 54 1056.3
20260905165742 89 172 4.0 10.0 0.00 0.00 0.00 54 1056.2
20260905165702 89 194 3.0 10.0 0.00 0.00 0.00 54 1056.2
20260905165642 89 193 3.0 9.0 0.00 0.00 0.00 54 1056.2
20260905165544 89 218 3.0 8.0 0.00 0.00 0.00 54 1056.2
20260905165513 89 239 3.0 8.0 0.00 0.00 0.00 54 1056.2
20260905165505 89 204 3.0 8.0 0.00 0.00 0.00 54 1056.2
20260905165203 89 180 3.0 9.0 0.00 0.00 0.00 53 1056.2
20260905165136 89 178 3.0 9.0 0.00 0.00 0.00 53 1056.2
20260905165100 88 191 2.0 9.0 0.00 0.00 0.00 53 1056.2
20260905165046 88 181 2.0 9.0 0.00 0.00 0.00 53 1056.1
20260905165034 88 181 3.0 9.0 0.00 0.00 0.00 53 1056.2
20260905165023 88 181 3.0 9.0 0.00 0.00 0.00 53 1056.2
20260905165012 88 168 3.0 9.0 0.00 0.00 0.00 53 1056.1
20260905164431 88 207 3.0 10.0 0.00 0.00 0.00 53 1056.1
20260905164330 88 83 3.0 10.0 0.00 0.00 0.00 53 1056.1
20260905164231 89 206 3.0 10.0 0.00 0.00 0.00 53 1056.2
20260905164203 89 188 3.0 10.0 0.00 0.00 0.00 53 1056.2
20260905164130 89 183 3.0 10.0 0.00 0.00 0.00 53 1056.2
20260905164029 89 135 4.0 11.0 0.00 0.00 0.00 53 1056.2
20260905163928 89 195 4.0 11.0 0.00 0.00 0.00 53 1056.1
20260905163826 89 213 4.0 11.0 0.00 0.00 0.00 52 1056.2
20260905163804 89 160 4.0 11.0 0.00 0.00 0.00 52 1056.2
20260905163753 89 182 4.0 11.0 0.00 0.00 0.00 52 1056.1
20260905163748 89 132 4.0 11.0 0.00 0.00 0.00 51 1056.1
20260905163427 89 169 4.0 11.0 0.00 0.00 0.00 51 1056.2
20260905163407 89 177 4.0 11.0 0.00 0.00 0.00 50 1056.2
20260905163355 89 183 3.0 11.0 0.00 0.00 0.00 50 1056.1
20260905163346 89 222 3.0 11.0 0.00 0.00 0.00 50 1056.1
20260905163116 89 141 3.0 11.0 0.00 0.00 0.00 49 1056.1
20260905163102 89 154 2.0 8.0 0.00 0.00 0.00 49 1056.1
20260905163052 89 117 2.0 8.0 0.00 0.00 0.00 49 1056.1
20260905163043 89 151 2.0 8.0 0.00 0.00 0.00 48 1056.2
20260905162815 89 133 2.0 9.0 0.00 0.00 0.00 48 1056.2
20260905162805 89 108 3.0 10.0 0.00 0.00 0.00 48 1056.1
20260905162218 89 205 3.0 10.0 0.00 0.00 0.00 47 1056.1
20260905162202 89 205 4.0 10.0 0.00 0.00 0.00 48 1056.2
20260905162117 89 205 4.0 10.0 0.00 0.00 0.00 48 1056.2
20260905162021 89 198 4.0 10.0 0.00 0.00 0.00 48 1056.2
20260905161916 89 199 4.0 10.0 0.00 0.00 0.00 48 1056.2
20260905161817 89 231 4.0 10.0 0.00 0.00 0.00 48 1056.2
20260905161743 89 179 4.0 10.0 0.00 0.00 0.00 48 1056.3
20260905161733 89 168 4.0 10.0 0.00 0.00 0.00 48 1056.3
20260905161726 89 191 4.0 10.0 0.00 0.00 0.00 48 1056.3
20260905161712 89 191 3.0 10.0 0.00 0.00 0.00 49 1056.3
20260905161701 89 139 3.0 10.0 0.00 0.00 0.00 48 1056.2
20260905161203 89 186 2.0 7.0 0.00 0.00 0.00 48 1056.3
20260905161118 89 214 2.0 8.0 0.00 0.00 0.00 48 1056.3
20260905161019 89 188 3.0 10.0 0.00 0.00 0.00 48 1056.3
20260905160917 89 145 3.0 14.0 0.00 0.00 0.00 48 1056.3
20260905160817 89 187 3.0 14.0 0.00 0.00 0.00 48 1056.2
20260905160712 89 203 4.0 14.0 0.00 0.00 0.00 48 1056.3
20260905160702 89 204 4.0 14.0 0.00 0.00 0.00 48 1056.3
20260905160610 89 201 4.0 14.0 0.00 0.00 0.00 47 1056.2
20260905160513 89 201 4.0 14.0 0.00 0.00 0.00 47 1056.2
20260905160419 89 91 4.0 14.0 0.00 0.00 0.00 46 1056.2
20260905160408 89 75 5.0 14.0 0.00 0.00 0.00 45 1056.2
20260905160341 89 144 5.0 14.0 0.00 0.00 0.00 45 1056.2
20260905160332 89 143 5.0 14.0 0.00 0.00 0.00 45 1056.2
20260905160008 89 213 5.0 14.0 0.00 0.00 0.00 44 1056.3
20260905155908 89 135 5.0 14.0 0.00 0.00 0.00 45 1056.2
20260905155809 89 212 5.0 14.0 0.00 0.00 0.00 45 1056.3
20260905155702 89 247 6.0 14.0 0.00 0.00 0.00 45 1056.3
20260905155608 89 175 6.0 14.0 0.00 0.00 0.00 44 1056.2
20260905155506 89 251 6.0 14.0 0.00 0.00 0.00 44 1056.3
20260905155407 89 216 6.0 14.0 0.00 0.00 0.00 44 1056.3
20260905155307 89 164 6.0 14.0 0.00 0.00 0.00 45 1056.3
20260905155204 89 152 6.0 14.0 0.00 0.00 0.00 45 1056.3
20260905155107 89 194 5.0 14.0 0.00 0.00 0.00 45 1056.3
20260905155020 89 217 5.0 13.0 0.00 0.00 0.00 44 1056.3
20260905155009 89 210 5.0 13.0 0.00 0.00 0.00 44 1056.3
20260905155000 89 117 4.0 13.0 0.00 0.00 0.00 44 1056.3
20260905154950 89 181 4.0 12.0 0.00 0.00 0.00 43 1056.3
20260905154942 89 179 4.0 10.0 0.00 0.00 0.00 43 1056.3
20260905154934 89 197 4.0 10.0 0.00 0.00 0.00 43 1056.3
20260905154440 89 244 4.0 10.0 0.00 0.00 0.00 44 1056.3
20260905154419 89 189 4.0 10.0 0.00 0.00 0.00 44 1056.3
20260905154103 89 207 4.0 10.0 0.00 0.00 0.00 44 1056.2
20260905154003 89 234 4.0 11.0 0.00 0.00 0.00 44 1056.3
20260905153945 89 135 5.0 11.0 0.00 0.00 0.00 44 1056.3
20260905153933 89 137 5.0 11.0 0.00 0.00 0.00 44 1056.2
20260905153923 89 239 5.0 11.0 0.00 0.00 0.00 44 1056.3
20260905153558 89 177 5.0 11.0 0.00 0.00 0.00 42 1056.2
20260905153458 89 144 6.0 16.0 0.00 0.00 0.00 42 1056.1
20260905153358 89 107 6.0 16.0 0.00 0.00 0.00 43 1056.2
20260905153302 89 139 6.0 16.0 0.00 0.00 0.00 44 1056.2
20260905153214 90 186 6.0 16.0 0.00 0.00 0.00 44 1056.2
20260905153158 90 187 6.0 16.0 0.00 0.00 0.00 44 1056.2
20260905153058 90 139 6.0 16.0 0.00 0.00 0.00 43 1056.3
20260905152958 90 165 6.0 16.0 0.00 0.00 0.00 43 1056.3
20260905152858 90 121 6.0 16.0 0.00 0.00 0.00 45 1056.3
20260905152758 90 196 6.0 16.0 0.00 0.00 0.00 45 1056.2
20260905152707 90 241 6.0 16.0 0.00 0.00 0.00 45 1056.3
20260905152658 90 241 6.0 16.0 0.00 0.00 0.00 45 1056.3
20260905152625 90 134 6.0 16.0 0.00 0.00 0.00 45 1056.3
20260905152617 90 188 5.0 15.0 0.00 0.00 0.00 46 1056.2
20260905152603 90 164 5.0 14.0 0.00 0.00 0.00 47 1056.2
20260905152330 90 222 5.0 14.0 0.00 0.00 0.00 47 1056.3
20260905152323 90 210 5.0 14.0 0.00 0.00 0.00 47 1056.3
20260905151958 90 214 5.0 12.0 0.00 0.00 0.00 46 1056.3
20260905151859 90 181 5.0 12.0 0.00 0.00 0.00 46 1056.3
20260905151800 90 158 5.0 13.0 0.00 0.00 0.00 47 1056.3
20260905151710 90 177 5.0 13.0 0.00 0.00 0.00 47 1056.3
20260905151701 90 174 5.0 13.0 0.00 0.00 0.00 47 1056.3
20260905151600 90 209 5.0 13.0 0.00 0.00 0.00 46 1056.3
20260905151458 90 201 5.0 13.0 0.00 0.00 0.00 47 1056.3
20260905151359 90 181 5.0 13.0 0.00 0.00 0.00 49 1056.3
20260905151258 90 172 5.0 13.0 0.00 0.00 0.00 49 1056.3
20260905151208 90 204 5.0 13.0 0.00 0.00 0.00 49 1056.3
20260905151158 90 207 5.0 13.0 0.00 0.00 0.00 49 1056.3
20260905151129 90 188 5.0 13.0 0.00 0.00 0.00 49 1056.4
20260905151121 90 216 4.0 13.0 0.00 0.00 0.00 50 1056.3
20260905150754 91 202 5.0 12.0 0.00 0.00 0.00 52 1056.3
20260905150704 91 148 5.0 12.0 0.00 0.00 0.00 52 1056.3
20260905150654 91 189 5.0 12.0 0.00 0.00 0.00 52 1056.3
20260905150554 91 164 5.0 13.0 0.00 0.00 0.00 52 1056.3
20260905150535 91 172 5.0 14.0 0.00 0.00 0.00 51 1056.3
20260905150523 91 179 6.0 14.0 0.00 0.00 0.00 51 1056.3
20260905150235 91 184 6.0 14.0 0.00 0.00 0.00 50 1056.3
20260905150228 91 179 6.0 14.0 0.00 0.00 0.00 50 1056.3
20260905150218 91 206 6.0 14.0 0.00 0.00 0.00 50 1056.3
20260905150202 91 203 6.0 14.0 0.00 0.00 0.00 50 1056.4
20260905145927 91 169 6.0 14.0 0.00 0.00 0.00 50 1056.4
20260905145654 91 242 6.0 14.0 0.00 0.00 0.00 51 1056.4
20260905145554 91 244 6.0 14.0 0.00 0.00 0.00 50 1056.4
20260905145454 91 192 5.0 13.0 0.00 0.00 0.00 50 1056.5
20260905145354 92 181 5.0 13.0 0.00 0.00 0.00 50 1056.4
20260905145254 92 219 5.0 13.0 0.00 0.00 0.00 50 1056.4
20260905145204 92 183 5.0 13.0 0.00 0.00 0.00 50 1056.4
20260905145154 92 151 5.0 13.0 0.00 0.00 0.00 50 1056.4
20260905145054 92 183 5.0 13.0 0.00 0.00 0.00 50 1056.4
20260905144957 92 228 5.0 13.0 0.00 0.00 0.00 50 1056.4
20260905144854 92 139 5.0 13.0 0.00 0.00 0.00 50 1056.4
20260905144835 92 228 5.0 12.0 0.00 0.00 0.00 50 1056.4
20260905144824 92 191 5.0 12.0 0.00 0.00 0.00 51 1056.4
20260905144819 92 188 5.0 12.0 0.00 0.00 0.00 51 1056.4
20260905144454 92 172 5.0 12.0 0.00 0.00 0.00 52 1056.5
20260905144346 92 172 5.0 12.0 0.00 0.00 0.00 51 1056.4
20260905144322 92 172 5.0 12.0 0.00 0.00 0.00 50 1056.4
20260905144313 92 194 5.0 12.0 0.00 0.00 0.00 50 1056.5
20260905144306 92 216 5.0 12.0 0.00 0.00 0.00 50 1056.5
20260905143946 92 214 5.0 12.0 0.00 0.00 0.00 50 1056.5
20260905143847 92 229 6.0 12.0 0.00 0.00 0.00 49 1056.4
20260905143745 92 177 6.0 12.0 0.00 0.00 0.00 49 1056.5
20260905143704 92 164 6.0 14.0 0.00 0.00 0.00 49 1056.5
20260905143646 92 167 6.0 14.0 0.00 0.00 0.00 49 1056.5
20260905143546 92 101 6.0 14.0 0.00 0.00 0.00 49 1056.5
20260905143446 92 205 6.0 14.0 0.00 0.00 0.00 49 1056.5
20260905143346 92 272 7.0 14.0 0.00 0.00 0.00 49 1056.5
20260905143248 92 202 6.0 14.0 0.00 0.00 0.00 49 1056.5
20260905143203 92 270 7.0 14.0 0.00 0.00 0.00 49 1056.6
20260905143146 92 198 7.0 14.0 0.00 0.00 0.00 49 1056.6
20260905143045 92 203 6.0 14.0 0.00 0.00 0.00 49 1056.6
20260905142946 92 231 6.0 14.0 0.00 0.00 0.00 48 1056.5
20260905142846 92 164 6.0 14.0 0.00 0.00 0.00 49 1056.5
20260905142746 92 231 6.0 14.0 0.00 0.00 0.00 49 1056.6
20260905142702 92 223 7.0 13.0 0.00 0.00 0.00 49 1056.5
20260905142646 92 219 7.0 14.0 0.00 0.00 0.00 49 1056.5
20260905142546 92 218 7.0 14.0 0.00 0.00 0.00 49 1056.5
20260905142448 92 162 7.0 14.0 0.00 0.00 0.00 48 1056.5
20260905142437 92 181 6.0 14.0 0.00 0.00 0.00 48 1056.5
20260905142424 92 261 7.0 14.0 0.00 0.00 0.00 47 1056.4
20260905142145 93 192 7.0 14.0 0.00 0.00 0.00 48 1056.5
20260905142046 93 156 7.0 14.0 0.00 0.00 0.00 48 1056.5
20260905141945 93 172 7.0 14.0 0.00 0.00 0.00 47 1056.6
20260905141847 93 195 6.0 14.0 0.00 0.00 0.00 46 1056.6
20260905141746 93 147 6.0 14.0 0.00 0.00 0.00 46 1056.6
20260905141703 93 198 6.0 14.0 0.00 0.00 0.00 45 1056.6
20260905141646 93 193 6.0 13.0 0.00 0.00 0.00 45 1056.6
20260905141546 93 189 6.0 13.0 0.00 0.00 0.00 45 1056.5
20260905141446 93 174 6.0 13.0 0.00 0.00 0.00 44 1056.5
20260905141346 93 251 6.0 13.0 0.00 0.00 0.00 44 1056.6
20260905141321 93 173 6.0 13.0 0.00 0.00 0.00 44 1056.6
20260905141311 93 161 6.0 13.0 0.00 0.00 0.00 43 1056.6
20260905141304 93 201 6.0 13.0 0.00 0.00 0.00 43 1056.6
20260905141019 93 177 6.0 13.0 0.00 0.00 0.00 43 1056.6
20260905141006 94 249 6.0 13.0 0.00 0.00 0.00 42 1056.6
20260905140702 94 206 6.0 13.0 0.00 0.00 0.00 42 1056.6
20260905140639 94 229 6.0 13.0 0.00 0.00 0.00 42 1056.6
20260905140532 94 179 6.0 13.0 0.00 0.00 0.00 42 1056.6
20260905140434 94 218 6.0 13.0 0.00 0.00 0.00 42 1056.6
20260905140331 94 211 6.0 11.0 0.00 0.00 0.00 42 1056.5
20260905140232 94 124 6.0 11.0 0.00 0.00 0.00 41 1056.6
20260905140205 94 138 6.0 11.0 0.00 0.00 0.00 41 1056.6
20260905140131 94 153 6.0 11.0 0.00 0.00 0.00 41 1056.6
20260905140109 94 238 6.0 12.0 0.00 0.00 0.00 41 1056.6
20260905140058 94 193 6.0 12.0 0.00 0.00 0.00 41 1056.6
20260905135731 94 239 6.0 14.0 0.00 0.00 0.00 41 1056.6
20260905135703 94 247 6.0 14.0 0.00 0.00 0.00 41 1056.6
20260905135632 94 211 6.0 14.0 0.00 0.00 0.00 41 1056.6
20260905135532 94 137 6.0 14.0 0.00 0.00 0.00 41 1056.6
20260905135434 94 187 6.0 14.0 0.00 0.00 0.00 41 1056.6
20260905135420 94 200 6.0 14.0 0.00 0.00 0.00 41 1056.6
20260905135411 94 118 6.0 14.0 0.00 0.00 0.00 41 1056.6
20260905135352 94 186 6.0 14.0 0.00 0.00 0.00 41 1056.6
20260905135032 94 260 6.0 14.0 0.00 0.00 0.00 41 1056.7
20260905134933 95 222 6.0 14.0 0.00 0.00 0.00 40 1056.7
20260905134831 95 212 6.0 14.0 0.00 0.00 0.00 41 1056.8
20260905134815 95 185 6.0 14.0 0.00 0.00 0.00 41 1056.6
20260905134804 95 145 7.0 14.0 0.00 0.00 0.00 40 1056.7
20260905134759 95 132 7.0 14.0 0.00 0.00 0.00 40 1056.7
20260905134433 95 199 7.0 14.0 0.00 0.00 0.00 40 1056.7
20260905134332 95 179 7.0 14.0 0.00 0.00 0.00 40 1056.7
20260905134232 95 203 7.0 14.0 0.00 0.00 0.00 40 1056.7
20260905134202 95 183 6.0 14.0 0.00 0.00 0.00 40 1056.7
20260905134131 95 208 6.0 14.0 0.00 0.00 0.00 40 1056.7
20260905134103 95 193 6.0 14.0 0.00 0.00 0.00 40 1056.7
20260905134055 95 185 6.0 14.0 0.00 0.00 0.00 40 1056.8
20260905133731 95 210 6.0 13.0 0.00 0.00 0.00 40 1056.8
20260905133703 95 184 5.0 13.0 0.00 0.00 0.00 41 1056.7
20260905133631 95 198 5.0 13.0 0.00 0.00 0.00 41 1056.7
20260905133531 95 205 5.0 13.0 0.00 0.00 0.00 41 1056.6
20260905133433 95 245 5.0 13.0 0.00 0.00 0.00 41 1056.6
20260905133332 95 207 6.0 13.0 0.00 0.00 0.00 41 1056.6
20260905133231 95 185 5.0 13.0 0.00 0.00 0.00 41 1056.6
20260905133206 95 205 5.0 13.0 0.00 0.00 0.00 41 1056.7
20260905133126 95 169 5.0 13.0 0.00 0.00 0.00 41 1056.7
20260905133026 95 136 5.0 13.0 0.00 0.00 0.00 41 1056.6
20260905132926 95 209 5.0 13.0 0.00 0.00 0.00 42 1056.6
20260905132826 95 227 5.0 13.0 0.00 0.00 0.00 42 1056.6
20260905132731 95 166 5.0 10.0 0.00 0.00 0.00 42 1056.6
20260905132722 95 125 6.0 10.0 0.00 0.00 0.00 42 1056.5
20260905132715 95 222 6.0 11.0 0.00 0.00 0.00 42 1056.5
20260905132701 95 222 6.0 11.0 0.00 0.00 0.00 41 1056.6
20260905132436 95 104 5.0 11.0 0.00 0.00 0.00 41 1056.5
20260905132422 95 199 5.0 11.0 0.00 0.00 0.00 42 1056.6
20260905132151 95 186 6.0 15.0 0.00 0.00 0.00 41 1056.6
20260905132144 95 157 6.0 15.0 0.00 0.00 0.00 41 1056.6
20260905131820 95 141 6.0 15.0 0.00 0.00 0.00 41 1056.6
20260905131718 95 195 6.0 15.0 0.00 0.00 0.00 42 1056.6
20260905131701 95 255 6.0 15.0 0.00 0.00 0.00 42 1056.6
20260905131618 95 212 6.0 15.0 0.00 0.00 0.00 42 1056.6
20260905131518 95 237 6.0 15.0 0.00 0.00 0.00 42 1056.7
20260905131415 95 211 6.0 15.0 0.00 0.00 0.00 42 1056.6
20260905131315 95 214 6.0 15.0 0.00 0.00 0.00 41 1056.6
20260905131215 95 225 6.0 15.0 0.00 0.00 0.00 41 1056.7
20260905131204 95 214 7.0 17.0 0.00 0.00 0.00 41 1056.6
20260905131116 95 218 7.0 17.0 0.00 0.00 0.00 41 1056.6
20260905131015 95 228 7.0 17.0 0.00 0.00 0.00 41 1056.7
20260905130912 95 216 6.0 17.0 0.00 0.00 0.00 41 1056.8
20260905130819 95 210 6.0 17.0 0.00 0.00 0.00 42 1056.7
20260905130705 95 158 6.0 17.0 0.00 0.00 0.00 42 1056.7
20260905130611 95 183 6.0 17.0 0.00 0.00 0.00 42 1056.7
20260905130509 95 210 6.0 17.0 0.00 0.00 0.00 42 1056.7
20260905130406 95 97 6.0 17.0 0.00 0.00 0.00 42 1056.7
20260905130307 95 222 6.0 17.0 0.00 0.00 0.00 41 1056.7
20260905130212 95 272 6.0 14.0 0.00 0.00 0.00 41 1056.8
20260905130206 95 216 5.0 14.0 0.00 0.00 0.00 41 1056.8
20260905130105 95 212 5.0 12.0 0.00 0.00 0.00 42 1056.7
20260905130003 95 233 5.0 11.0 0.00 0.00 0.00 42 1056.6
20260905125904 95 149 5.0 11.0 0.00 0.00 0.00 42 1056.7
20260905125807 95 158 5.0 11.0 0.00 0.00 0.00 42 1056.6
20260905125740 95 126 5.0 11.0 0.00 0.00 0.00 41 1056.6
20260905125731 95 145 5.0 11.0 0.00 0.00 0.00 41 1056.6
20260905125420 95 113 4.0 10.0 0.00 0.00 0.00 41 1056.6
20260905125411 95 88 4.0 10.0 0.00 0.00 0.00 41 1056.6
20260905125351 95 175 4.0 10.0 0.00 0.00 0.00 40 1056.6
20260905125122 96 108 4.0 11.0 0.00 0.00 0.00 41 1056.7
20260905125107 96 179 4.0 11.0 0.00 0.00 0.00 41 1056.6
20260905125057 95 131 4.0 11.0 0.00 0.00 0.00 41 1056.6
20260905124829 96 129 5.0 11.0 0.00 0.00 0.00 41 1056.6
20260905124504 96 93 5.0 11.0 0.00 0.00 0.00 41 1056.6
20260905124404 95 109 5.0 11.0 0.00 0.00 0.00 41 1056.7
20260905124304 95 178 6.0 12.0 0.00 0.00 0.00 41 1056.8
20260905124206 95 190 5.0 12.0 0.00 0.00 0.00 41 1056.8
20260905124136 95 184 5.0 12.0 0.00 0.00 0.00 41 1056.8
20260905124128 95 218 5.0 12.0 0.00 0.00 0.00 40 1056.7
20260905123805 95 213 5.0 12.0 0.00 0.00 0.00 41 1056.7
20260905123729 95 230 4.0 12.0 0.00 0.00 0.00 42 1056.8
20260905123719 95 112 4.0 12.0 0.00 0.00 0.00 41 1056.7
20260905123707 95 148 4.0 12.0 0.00 0.00 0.00 41 1056.7
20260905123651 96 96 4.0 12.0 0.00 0.00 0.00 40 1056.8
20260905123417 96 114 3.0 8.0 0.00 0.00 0.00 41 1056.7
20260905123103 96 112 3.0 8.0 0.00 0.00 0.00 41 1056.8
20260905123004 96 180 3.0 8.0 0.00 0.00 0.00 41 1056.8
20260905122903 96 230 3.0 8.0 0.00 0.00 0.00 41 1056.8
20260905122805 96 218 3.0 8.0 0.00 0.00 0.00 41 1056.8
20260905122705 96 103 3.0 8.0 0.00 0.00 0.00 41 1056.8
20260905122603 96 170 3.0 8.0 0.00 0.00 0.00 42 1056.9
20260905122505 96 196 3.0 8.0 0.00 0.00 0.00 42 1056.9
20260905122404 96 102 3.0 8.0 0.00 0.00 0.00 42 1056.9
20260905122306 95 174 3.0 8.0 0.00 0.00 0.00 42 1056.8
20260905122205 95 149 3.0 8.0 0.00 0.00 0.00 42 1056.9
20260905122103 95 121 3.0 7.0 0.00 0.00 0.00 43 1056.8
20260905122004 95 153 3.0 6.0 0.00 0.00 0.00 43 1056.8
20260905121903 95 185 3.0 6.0 0.00 0.00 0.00 42 1056.9
20260905121759 95 157 3.0 10.0 0.00 0.00 0.00 42 1056.8
20260905121711 95 157 4.0 10.0 0.00 0.00 0.00 42 1056.8
20260905121700 95 173 4.0 10.0 0.00 0.00 0.00 42 1056.8
20260905121600 95 197 4.0 10.0 0.00 0.00 0.00 42 1056.9
20260905121505 95 157 4.0 10.0 0.00 0.00 0.00 42 1056.9
20260905121359 96 181 4.0 10.0 0.00 0.00 0.00 42 1056.9
20260905121256 96 180 4.0 10.0 0.00 0.00 0.00 42 1056.9
20260905121208 96 148 4.0 10.0 0.00 0.00 0.00 43 1056.9
20260905121156 96 148 4.0 10.0 0.00 0.00 0.00 43 1056.9
20260905121056 96 172 5.0 10.0 0.00 0.00 0.00 43 1056.8
20260905120955 96 93 5.0 10.0 0.00 0.00 0.00 43 1056.9
20260905120854 96 99 5.0 10.0 0.00 0.00 0.00 42 1056.9
20260905120824 96 45 5.0 10.0 0.00 0.00 0.00 42 1056.9
20260905120814 96 158 4.0 10.0 0.00 0.00 0.00 42 1056.9
20260905120808 96 174 4.0 10.0 0.00 0.00 0.00 42 1056.9
20260905120444 96 226 4.0 10.0 0.00 0.00 0.00 41 1056.9
20260905120343 96 199 4.0 10.0 0.00 0.00 0.00 40 1056.9
20260905120322 96 197 4.0 10.0 0.00 0.00 0.00 40 1056.9
20260905120312 96 209 4.0 10.0 0.00 0.00 0.00 39 1056.9
20260905120306 96 227 4.0 10.0 0.00 0.00 0.00 39 1056.9
20260905115939 96 190 4.0 10.0 0.00 0.00 0.00 40 1057.0
20260905115837 96 167 4.0 10.0 0.00 0.00 0.00 39 1056.9
20260905115818 96 170 4.0 10.0 0.00 0.00 0.00 39 1057.0
20260905115800 96 166 4.0 10.0 0.00 0.00 0.00 39 1057.0
20260905115433 96 90 4.0 10.0 0.00 0.00 0.00 38 1056.9
20260905115352 96 100 3.0 10.0 0.00 0.00 0.00 37 1057.0
20260905115340 96 96 3.0 10.0 0.00 0.00 0.00 37 1057.0
20260905115330 96 99 3.0 10.0 0.00 0.00 0.00 37 1057.0
20260905115320 96 97 3.0 10.0 0.00 0.00 0.00 37 1057.0
20260905115312 96 95 2.0 10.0 0.00 0.00 0.00 38 1057.0
20260905115306 96 189 2.0 6.0 0.00 0.00 0.00 37 1057.0
20260905115251 96 80 2.0 6.0 0.00 0.00 0.00 37 1057.0
20260905115241 96 63 2.0 6.0 0.00 0.00 0.00 37 1057.0
20260905115232 96 60 3.0 6.0 0.00 0.00 0.00 37 1057.0
20260905115225 96 59 3.0 6.0 0.00 0.00 0.00 37 1057.0
20260905115217 96 59 3.0 7.0 0.00 0.00 0.00 37 1057.0
20260905115209 96 89 3.0 7.0 0.00 0.00 0.00 37 1057.1
20260905115200 95 219 3.0 8.0 0.00 0.00 0.00 38 1057.1
20260905115150 95 219 3.0 8.0 0.00 0.00 0.00 37 1057.1
20260905115141 95 220 4.0 8.0 0.00 0.00 0.00 37 1057.1
20260905115134 95 222 4.0 8.0 0.00 0.00 0.00 37 1057.1
20260905115122 95 216 4.0 8.0 0.00 0.00 0.00 37 1057.1
20260905115114 95 213 4.0 8.0 0.00 0.00 0.00 37 1057.2
20260905114838 95 262 3.0 8.0 0.00 0.00 0.00 38 1057.2
20260905114829 95 195 4.0 8.0 0.00 0.00 0.00 38 1057.2
20260905114824 95 208 4.0 8.0 0.00 0.00 0.00 39 1057.2
20260905114816 95 222 4.0 8.0 0.00 0.00 0.00 39 1057.2
20260905114805 94 244 4.0 8.0 0.00 0.00 0.00 39 1057.1
20260905114755 94 231 4.0 10.0 0.00 0.00 0.00 39 1057.2
20260905114315 94 165 4.0 11.0 0.00 0.00 0.00 39 1057.2
20260905114307 94 124 4.0 11.0 0.00 0.00 0.00 39 1057.1
20260905114259 94 106 4.0 11.0 0.00 0.00 0.00 39 1057.1
20260905114031 94 122 4.0 11.0 0.00 0.00 0.00 39 1057.2
20260905114015 94 122 4.0 11.0 0.00 0.00 0.00 39 1057.2
20260905114005 94 202 4.0 11.0 0.00 0.00 0.00 39 1057.2
20260905113953 94 96 4.0 11.0 0.00 0.00 0.00 40 1057.2
20260905113944 94 84 4.0 11.0 0.00 0.00 0.00 39 1057.1
20260905113714 94 103 3.0 8.0 0.00 0.00 0.00 39 1057.2
20260905113446 94 192 3.0 8.0 0.00 0.00 0.00 40 1057.2
20260905113438 94 149 3.0 8.0 0.00 0.00 0.00 40 1057.2
20260905113429 94 144 4.0 8.0 0.00 0.00 0.00 39 1057.2
20260905113419 94 77 4.0 8.0 0.00 0.00 0.00 39 1057.2
20260905113407 94 77 4.0 8.0 0.00 0.00 0.00 40 1057.2
20260905113402 94 75 4.0 8.0 0.00 0.00 0.00 40 1057.2
20260905113354 94 104 3.0 8.0 0.00 0.00 0.00 39 1057.2
20260905113346 94 62 3.0 8.0 0.00 0.00 0.00 39 1057.2
20260905113118 94 117 4.0 9.0 0.00 0.00 0.00 39 1057.1
20260905112152 94 91 3.0 9.0 0.00 0.00 0.00 39 1057.3
20260905112142 94 78 3.0 9.0 0.00 0.00 0.00 40 1057.3
20260905112133 94 89 3.0 9.0 0.00 0.00 0.00 40 1057.3
20260905111432 94 91 2.0 9.0 0.00 0.00 0.00 40 1057.4
20260905111409 94 81 2.0 8.0 0.00 0.00 0.00 41 1057.4
20260905110924 94 131 2.0 8.0 0.00 0.00 0.00 40 1057.4
20260905110911 94 131 3.0 8.0 0.00 0.00 0.00 40 1057.4
20260905105945 93 166 2.0 7.0 0.00 0.00 0.00 40 1057.4
20260905105936 93 167 3.0 8.0 0.00 0.00 0.00 40 1057.3
20260905105926 93 167 3.0 8.0 0.00 0.00 0.00 40 1057.4
20260905105651 93 151 4.0 8.0 0.00 0.00 0.00 40 1057.4
20260905105426 93 174 4.0 8.0 0.00 0.00 0.00 42 1057.4
20260905105418 93 157 4.0 8.0 0.00 0.00 0.00 41 1057.4
20260905104926 93 104 4.0 8.0 0.00 0.00 0.00 42 1057.4
20260905104659 93 93 4.0 8.0 0.00 0.00 0.00 41 1057.4
20260905104428 93 73 4.0 8.0 0.00 0.00 0.00 41 1057.4
20260905104412 93 99 4.0 8.0 0.00 0.00 0.00 41 1057.4
20260905104103 93 120 4.0 8.0 0.00 0.00 0.00 41 1057.4
20260905104003 93 114 3.0 8.0 0.00 0.00 0.00 41 1057.4
20260905103903 92 135 3.0 8.0 0.00 0.00 0.00 41 1057.4
20260905103805 92 172 3.0 8.0 0.00 0.00 0.00 42 1057.4
20260905103704 92 198 4.0 8.0 0.00 0.00 0.00 42 1057.4
20260905103653 92 197 4.0 8.0 0.00 0.00 0.00 41 1057.4
20260905103604 92 103 4.0 8.0 0.00 0.00 0.00 41 1057.4
20260905103504 92 81 3.0 8.0 0.00 0.00 0.00 41 1057.4
20260905103436 92 182 3.0 8.0 0.00 0.00 0.00 41 1057.4
20260905103428 92 141 3.0 8.0 0.00 0.00 0.00 41 1057.4
20260905103152 92 131 3.0 8.0 0.00 0.00 0.00 41 1057.4
20260905103104 92 52 3.0 8.0 0.00 0.00 0.00 42 1057.4
20260905103006 92 151 3.0 8.0 0.00 0.00 0.00 42 1057.4
20260905102904 92 190 3.0 8.0 0.00 0.00 0.00 41 1057.4
20260905102806 92 158 3.0 8.0 0.00 0.00 0.00 41 1057.4
20260905102742 92 193 3.0 9.0 0.00 0.00 0.00 43 1057.4
20260905102733 92 195 3.0 9.0 0.00 0.00 0.00 43 1057.4
20260905102726 92 210 3.0 9.0 0.00 0.00 0.00 42 1057.4
20260905102404 92 64 4.0 10.0 0.00 0.00 0.00 41 1057.4
20260905102306 92 63 4.0 10.0 0.00 0.00 0.00 42 1057.4
20260905102203 92 97 4.0 10.0 0.00 0.00 0.00 42 1057.4
20260905102151 92 145 4.0 10.0 0.00 0.00 0.00 42 1057.4
20260905102104 92 147 4.0 10.0 0.00 0.00 0.00 41 1057.4
20260905102004 92 147 4.0 10.0 0.00 0.00 0.00 41 1057.4
20260905101904 92 104 4.0 10.0 0.00 0.00 0.00 42 1057.4
20260905101804 92 110 4.0 10.0 0.00 0.00 0.00 41 1057.4
20260905101704 92 139 4.0 10.0 0.00 0.00 0.00 42 1057.4
20260905101651 92 141 4.0 10.0 0.00 0.00 0.00 42 1057.4
20260905101604 92 109 4.0 10.0 0.00 0.00 0.00 41 1057.4
20260905101457 92 70 3.0 10.0 0.00 0.00 0.00 41 1057.4
20260905101400 92 125 3.0 8.0 0.00 0.00 0.00 41 1057.4
20260905101258 92 145 4.0 7.0 0.00 0.00 0.00 42 1057.4
20260905101151 92 156 4.0 8.0 0.00 0.00 0.00 40 1057.4
20260905101057 92 140 4.0 8.0 0.00 0.00 0.00 41 1057.4
20260905100954 92 134 4.0 8.0 0.00 0.00 0.00 41 1057.4
20260905100851 91 104 4.0 8.0 0.00 0.00 0.00 42 1057.4
20260905100752 91 97 4.0 8.0 0.00 0.00 0.00 42 1057.4
20260905100659 91 240 4.0 8.0 0.00 0.00 0.00 41 1057.4
20260905100648 91 239 4.0 8.0 0.00 0.00 0.00 41 1057.4
20260905100552 91 122 4.0 8.0 0.00 0.00 0.00 41 1057.4
20260905100445 91 122 4.0 8.0 0.00 0.00 0.00 40 1057.4
20260905100347 92 123 4.0 8.0 0.00 0.00 0.00 41 1057.5
20260905100245 92 114 4.0 8.0 0.00 0.00 0.00 41 1057.5
20260905100154 92 106 4.0 8.0 0.00 0.00 0.00 42 1057.5
20260905100143 92 100 4.0 8.0 0.00 0.00 0.00 42 1057.5
20260905100044 92 100 4.0 8.0 0.00 0.00 0.00 42 1057.5
20260905095944 92 73 4.0 8.0 0.00 0.00 0.00 40 1057.5
20260905095844 92 45 4.0 8.0 0.00 0.00 0.00 41 1057.4
20260905095743 92 125 4.0 8.0 0.00 0.00 0.00 42 1057.5
20260905095651 92 122 3.0 8.0 0.00 0.00 0.00 42 1057.5
20260905095641 92 95 3.0 8.0 0.00 0.00 0.00 42 1057.5
20260905095542 92 145 4.0 8.0 0.00 0.00 0.00 42 1057.4
20260905095440 91 134 4.0 9.0 0.00 0.00 0.00 41 1057.4
20260905095338 92 134 4.0 9.0 0.00 0.00 0.00 42 1057.4
20260905095236 91 148 4.0 9.0 0.00 0.00 0.00 42 1057.4
20260905095146 91 141 4.0 9.0 0.00 0.00 0.00 42 1057.4
20260905095136 91 125 4.0 9.0 0.00 0.00 0.00 41 1057.4
20260905095052 91 115 4.0 9.0 0.00 0.00 0.00 41 1057.4
20260905095043 91 87 4.0 9.0 0.00 0.00 0.00 41 1057.4
20260905095028 91 77 4.0 9.0 0.00 0.00 0.00 41 1057.4
20260905094756 91 77 5.0 10.0 0.00 0.00 0.00 40 1057.4
20260905094751 91 78 5.0 10.0 0.00 0.00 0.00 40 1057.4
20260905094459 91 89 4.0 10.0 0.00 0.00 0.00 41 1057.4
20260905094448 91 153 5.0 10.0 0.00 0.00 0.00 41 1057.4
20260905094439 91 141 5.0 10.0 0.00 0.00 0.00 41 1057.4
20260905094428 91 142 5.0 10.0 0.00 0.00 0.00 41 1057.4
20260905094419 91 141 5.0 10.0 0.00 0.00 0.00 41 1057.4
20260905094406 91 104 5.0 10.0 0.00 0.00 0.00 42 1057.4
20260905094358 91 70 5.0 10.0 0.00 0.00 0.00 42 1057.4
20260905094130 91 97 5.0 10.0 0.00 0.00 0.00 41 1057.4
20260905094120 91 85 5.0 10.0 0.00 0.00 0.00 41 1057.4
20260905094107 91 119 5.0 10.0 0.00 0.00 0.00 41 1057.4
20260905093842 91 101 5.0 10.0 0.00 0.00 0.00 41 1057.5
20260905093131 91 112 4.0 10.0 0.00 0.00 0.00 41 1057.4
20260905093031 91 107 4.0 10.0 0.00 0.00 0.00 40 1057.4
20260905093003 91 87 4.0 10.0 0.00 0.00 0.00 42 1057.4
20260905092953 91 87 4.0 10.0 0.00 0.00 0.00 42 1057.4
20260905092944 91 144 4.0 10.0 0.00 0.00 0.00 41 1057.4
20260905092927 91 144 4.0 10.0 0.00 0.00 0.00 42 1057.4
20260905092919 91 110 4.0 10.0 0.00 0.00 0.00 42 1057.4
20260905092650 91 70 3.0 10.0 0.00 0.00 0.00 42 1057.3
20260905092640 91 88 3.0 10.0 0.00 0.00 0.00 42 1057.4
20260905092620 90 79 3.0 9.0 0.00 0.00 0.00 44 1057.4
20260905092128 90 132 4.0 11.0 0.00 0.00 0.00 44 1057.4
20260905091851 90 100 4.0 11.0 0.00 0.00 0.00 44 1057.3
20260905091532 90 60 4.0 11.0 0.00 0.00 0.00 43 1057.4
20260905091432 90 59 4.0 11.0 0.00 0.00 0.00 43 1057.3
20260905091331 90 58 5.0 11.0 0.00 0.00 0.00 43 1057.4
20260905091232 90 60 5.0 11.0 0.00 0.00 0.00 43 1057.3
20260905091142 90 60 4.0 11.0 0.00 0.00 0.00 43 1057.3
20260905091132 90 57 4.0 11.0 0.00 0.00 0.00 43 1057.3
20260905091031 90 89 4.0 11.0 0.00 0.00 0.00 43 1057.3
20260905090931 90 135 5.0 11.0 0.00 0.00 0.00 43 1057.3
20260905090832 90 138 4.0 11.0 0.00 0.00 0.00 44 1057.3
20260905090732 90 141 4.0 11.0 0.00 0.00 0.00 44 1057.3
20260905090703 89 141 4.0 11.0 0.00 0.00 0.00 44 1057.3
20260905090646 89 143 4.0 11.0 0.00 0.00 0.00 44 1057.3
20260905090639 89 99 4.0 11.0 0.00 0.00 0.00 44 1057.2
20260905090631 89 145 4.0 11.0 0.00 0.00 0.00 44 1057.2
20260905090615 89 139 4.0 11.0 0.00 0.00 0.00 44 1057.3
20260905090606 89 109 4.0 11.0 0.00 0.00 0.00 44 1057.2
20260905090555 89 110 4.0 11.0 0.00 0.00 0.00 44 1057.2
20260905090333 89 109 3.0 11.0 0.00 0.00 0.00 46 1057.3
20260905090324 89 129 3.0 7.0 0.00 0.00 0.00 46 1057.2
20260905090037 89 106 3.0 7.0 0.00 0.00 0.00 49 1057.2
20260905090021 89 108 3.0 7.0 0.00 0.00 0.00 48 1057.2
20260905085751 88 154 3.0 6.0 0.00 0.00 0.00 48 1057.1
20260905085251 88 158 2.0 6.0 0.00 0.00 0.00 50 1057.1
20260905084923 88 151 2.0 6.0 0.00 0.00 0.00 50 1057.1
20260905084821 88 152 2.0 6.0 0.00 0.00 0.00 49 1057.1
20260905084720 88 152 2.0 6.0 0.00 0.00 0.00 49 1057.1
20260905084643 88 152 2.0 6.0 0.00 0.00 0.00 52 1057.1
20260905084635 87 155 2.0 6.0 0.00 0.00 0.00 51 1057.1
20260905084350 87 192 2.0 4.0 0.00 0.00 0.00 53 1057.1
20260905084341 87 192 2.0 4.0 0.00 0.00 0.00 53 1057.1
20260905084332 87 192 2.0 4.0 0.00 0.00 0.00 53 1057.1
20260905084323 87 193 2.0 4.0 0.00 0.00 0.00 53 1057.1
20260905084311 87 192 2.0 4.0 0.00 0.00 0.00 54 1057.1
20260905084300 87 195 2.0 4.0 0.00 0.00 0.00 54 1057.1
20260905084031 87 193 2.0 4.0 0.00 0.00 0.00 56 1057.1
20260905084013 87 193 2.0 4.0 0.00 0.00 0.00 56 1057.1
20260905083529 87 193 2.0 4.0 0.00 0.00 0.00 57 1057.0
20260905083208 86 193 3.0 4.0 0.00 0.00 0.00 58 1057.1
20260905083131 86 193 3.0 4.0 0.00 0.00 0.00 58 1057.1
20260905083105 86 194 3.0 4.0 0.00 0.00 0.00 58 1057.0
20260905083042 86 197 3.0 4.0 0.00 0.00 0.00 58 1057.0
20260905083034 86 197 2.0 4.0 0.00 0.00 0.00 58 1057.0
20260905082703 86 197 2.0 4.0 0.00 0.00 0.00 59 1057.0
20260905082630 86 197 2.0 4.0 0.00 0.00 0.00 59 1057.0
20260905082604 86 197 2.0 4.0 0.00 0.00 0.00 58 1057.0
20260905082504 86 197 2.0 4.0 0.00 0.00 0.00 59 1057.0
20260905082403 86 197 2.0 4.0 0.00 0.00 0.00 59 1057.0
20260905082307 86 197 2.0 4.0 0.00 0.00 0.00 59 1057.0
20260905082203 86 197 2.0 4.0 0.00 0.00 0.00 58 1056.9
20260905082130 86 197 2.0 4.0 0.00 0.00 0.00 58 1056.9
20260905082103 86 258 2.0 3.0 0.00 0.00 0.00 58 1057.0
20260905082005 86 258 2.0 3.0 0.00 0.00 0.00 58 1057.0
20260905081915 86 259 2.0 3.0 0.00 0.00 0.00 59 1056.9
20260905081903 86 260 2.0 3.0 0.00 0.00 0.00 59 1056.9
20260905081851 86 260 2.0 3.0 0.00 0.00 0.00 59 1056.9
20260905081834 86 260 2.0 3.0 0.00 0.00 0.00 59 1056.9
20260905081601 86 261 2.0 3.0 0.00 0.00 0.00 59 1056.9
20260905081551 86 261 2.0 3.0 0.00 0.00 0.00 60 1056.9
20260905081542 86 261 2.0 3.0 0.00 0.00 0.00 59 1056.9
20260905081051 86 261 2.0 3.0 0.00 0.00 0.00 59 1056.9
20260905081043 86 261 2.0 3.0 0.00 0.00 0.00 59 1056.9
20260905081029 86 261 2.0 3.0 0.00 0.00 0.00 59 1056.9
20260905081014 85 261 2.0 3.0 0.00 0.00 0.00 58 1056.9
20260905081004 85 260 2.0 3.0 0.00 0.00 0.00 58 1056.9
20260905080958 85 261 2.0 3.0 0.00 0.00 0.00 58 1056.9
20260905080731 85 269 2.0 3.0 0.00 0.00 0.00 59 1056.9
20260905080710 85 269 2.0 3.0 0.00 0.00 0.00 59 1056.9
20260905080659 86 269 2.0 3.0 0.00 0.00 0.00 58 1056.9
20260905080213 86 269 2.0 3.0 0.00 0.00 0.00 58 1056.9
20260905080203 86 269 2.0 3.0 0.00 0.00 0.00 57 1056.8
20260905080151 86 269 2.0 3.0 0.00 0.00 0.00 56 1056.8
20260905080142 86 270 1.0 3.0 0.00 0.00 0.00 57 1056.8
20260905075916 86 270 1.0 3.0 0.00 0.00 0.00 57 1056.8
20260905075904 86 272 1.0 3.0 0.00 0.00 0.00 57 1056.8
20260905075130 85 277 1.0 2.0 0.00 0.00 0.00 56 1056.8
20260905075103 85 277 1.0 3.0 0.00 0.00 0.00 58 1056.8
20260905075004 85 276 1.0 3.0 0.00 0.00 0.00 58 1056.8
20260905074930 85 276 1.0 3.0 0.00 0.00 0.00 57 1056.8
20260905074916 84 276 1.0 3.0 0.00 0.00 0.00 58 1056.8
20260905074902 84 276 2.0 3.0 0.00 0.00 0.00 58 1056.8
20260905074850 84 276 2.0 3.0 0.00 0.00 0.00 58 1056.8
20260905074627 84 276 2.0 3.0 0.00 0.00 0.00 57 1056.8
20260905074320 83 276 2.0 3.0 0.00 0.00 0.00 58 1056.8
20260905074311 83 276 2.0 3.0 0.00 0.00 0.00 57 1056.7
20260905074301 83 276 2.0 3.0 0.00 0.00 0.00 57 1056.7
20260905074251 83 276 2.0 3.0 0.00 0.00 0.00 58 1056.8
20260905074023 82 276 2.0 3.0 0.00 0.00 0.00 58 1056.7
20260905074008 82 277 2.0 3.0 0.00 0.00 0.00 58 1056.8
20260905073953 82 278 2.0 4.0 0.00 0.00 0.00 58 1056.7
20260905073943 82 278 2.0 4.0 0.00 0.00 0.00 59 1056.7
20260905073403 82 278 2.0 4.0 0.00 0.00 0.00 59 1056.7
20260905073304 82 278 2.0 4.0 0.00 0.00 0.00 59 1056.7
20260905073201 82 278 2.0 4.0 0.00 0.00 0.00 59 1056.8
20260905073130 81 277 2.0 4.0 0.00 0.00 0.00 59 1056.8
20260905073101 81 278 3.0 6.0 0.00 0.00 0.00 59 1056.8
20260905073002 81 278 2.0 7.0 0.00 0.00 0.00 59 1056.8
20260905072902 81 278 3.0 7.0 0.00 0.00 0.00 59 1056.7
20260905072802 81 277 3.0 7.0 0.00 0.00 0.00 60 1056.7
20260905072638 81 278 3.0 7.0 0.00 0.00 0.00 60 1056.7
20260905072630 81 278 3.0 7.0 0.00 0.00 0.00 60 1056.8
20260905072622 80 278 3.0 7.0 0.00 0.00 0.00 60 1056.8
20260905072259 80 279 3.0 7.0 0.00 0.00 0.00 61 1056.8
20260905072130 80 279 3.0 7.0 0.00 0.00 0.00 61 1056.7
20260905072059 80 278 3.0 7.0 0.00 0.00 0.00 61 1056.7
20260905071957 80 278 3.0 7.0 0.00 0.00 0.00 62 1056.7
20260905071857 80 278 3.0 7.0 0.00 0.00 0.00 62 1056.7
20260905071758 79 277 3.0 7.0 0.00 0.00 0.00 62 1056.7
20260905071738 79 278 3.0 7.0 0.00 0.00 0.00 62 1056.7
20260905071729 79 289 3.0 7.0 0.00 0.00 0.00 62 1056.7
20260905071722 79 271 3.0 6.0 0.00 0.00 0.00 62 1056.7
20260905071347 79 261 4.0 8.0 0.00 0.00 0.00 64 1056.7
20260905071247 78 260 4.0 9.0 0.00 0.00 0.00 64 1056.7
20260905071130 78 259 4.0 9.0 0.00 0.00 0.00 64 1056.6
20260905071046 78 280 4.0 9.0 0.00 0.00 0.00 64 1056.6
20260905070943 78 280 4.0 9.0 0.00 0.00 0.00 65 1056.6
20260905070843 78 278 4.0 9.0 0.00 0.00 0.00 65 1056.6
20260905070741 78 278 4.0 9.0 0.00 0.00 0.00 65 1056.6
20260905070640 77 276 4.0 9.0 0.00 0.00 0.00 65 1056.6
20260905070631 77 286 4.0 9.0 0.00 0.00 0.00 65 1056.6
20260905070541 77 287 4.0 9.0 0.00 0.00 0.00 66 1056.5
20260905070513 77 262 4.0 9.0 0.00 0.00 0.00 66 1056.5
20260905070504 77 267 3.0 9.0 0.00 0.00 0.00 66 1056.6
20260905070141 76 292 3.0 7.0 0.00 0.00 0.00 68 1056.5
20260905070131 76 293 3.0 7.0 0.00 0.00 0.00 68 1056.5
20260905070035 76 269 3.0 7.0 0.00 0.00 0.00 68 1056.5
20260905065935 76 278 3.0 6.0 0.00 0.00 0.00 68 1056.5
20260905065835 76 263 3.0 6.0 0.00 0.00 0.00 68 1056.5
20260905065733 76 263 3.0 7.0 0.00 0.00 0.00 68 1056.5
20260905065654 76 262 3.0 7.0 0.00 0.00 0.00 68 1056.5
20260905065643 76 263 3.0 7.0 0.00 0.00 0.00 68 1056.5
20260905065637 76 262 4.0 7.0 0.00 0.00 0.00 68 1056.5
20260905065629 75 262 4.0 7.0 0.00 0.00 0.00 68 1056.5
20260905065618 75 262 4.0 7.0 0.00 0.00 0.00 68 1056.5
20260905065608 75 262 4.0 7.0 0.00 0.00 0.00 68 1056.5
20260905065033 75 270 4.0 7.0 0.00 0.00 0.00 68 1056.4
20260905064948 75 271 4.0 7.0 0.00 0.00 0.00 68 1056.4
20260905064936 74 273 4.0 7.0 0.00 0.00 0.00 69 1056.4
20260905064918 74 272 4.0 7.0 0.00 0.00 0.00 69 1056.4